GFSSW_850_rhum_003.txt.gz
RH
34 33 35 32 31 29 26 25 24 26 28 27 18 20 21 21 20 17 18 16 16 11 10 13 12 9 7 7 6 6 6 7 7 7 7 6 6 11 14 11 14 17 20 42 62
37 37 35 34 33 28 26 24 24 26 29 25 18 21 20 20 22 18 18 17 16 11 17 11 9 8 7 6 6 6 7 8 8 6 6 6 6 9 11 12 16 22 35 48 57
38 36 34 32 28 25 24 23 26 28 28 24 17 20 19 20 23 19 17 16 16 14 20 14 12 8 8 9 9 9 9 7 9 11 9 8 8 10 10 10 11 16 26 41 46
35 34 33 29 27 26 26 28 28 27 26 22 16 19 24 23 20 23 22 20 17 14 18 13 12 11 10 10 10 11 11 11 13 14 12 11 13 12 12 11 16 18 23 33 38
36 33 31 29 28 29 29 28 25 21 20 20 22 22 25 23 24 25 24 22 19 18 14 13 12 12 11 12 13 14 14 16 16 16 16 17 14 15 14 15 19 24 29 30 31
35 32 30 30 31 30 30 27 27 23 22 21 21 24 24 21 25 25 26 23 21 19 17 17 16 17 16 15 15 16 16 18 17 16 16 17 12 14 13 18 20 23 24 24 24
35 32 32 32 33 34 33 32 30 28 25 23 22 23 22 24 24 23 25 24 23 21 18 17 19 19 18 20 21 18 18 16 16 14 14 16 11 14 11 17 17 20 22 22 22
34 33 34 36 36 35 32 30 28 27 26 24 23 28 23 25 23 23 22 22 22 22 20 19 20 20 22 22 19 15 15 10 10 13 14 12 10 8 11 14 16 15 17 20 22
33 32 34 36 34 33 32 29 28 27 25 23 27 24 21 24 23 23 23 22 22 22 22 21 16 16 21 16 16 10 12 13 12 10 12 10 12 8 9 11 13 13 12 15 19
33 33 33 34 32 30 28 28 26 26 22 23 23 21 22 23 25 24 24 24 21 20 20 16 15 13 10 12 16 15 16 15 14 10 12 14 14 10 10 9 9 10 12 12 13
32 33 33 32 28 27 26 28 28 23 26 23 22 20 20 22 22 21 23 23 19 18 16 15 15 17 16 17 17 17 18 17 14 14 18 17 15 11 9 9 10 11 13 14 14
29 32 33 32 32 32 30 33 26 33 24 23 21 20 22 22 19 18 20 19 18 15 13 18 20 18 17 17 17 16 18 17 15 14 17 17 15 10 10 12 12 14 15 17 18
24 29 32 31 30 28 37 20 21 26 20 22 24 20 23 22 19 20 21 19 16 15 14 17 20 18 17 16 19 16 21 21 22 19 15 16 13 11 12 12 14 16 18 18 20
22 23 27 28 32 27 31 23 25 28 26 21 20 22 20 20 20 22 22 22 18 18 16 18 19 18 18 18 21 21 20 22 24 24 22 16 17 13 12 12 12 15 17 19 21
26 19 27 29 43 37 32 31 34 39 57 23 20 22 21 19 20 20 23 22 20 19 18 24 18 18 18 22 22 24 22 25 24 27 24 19 20 13 13 13 13 14 17 19 21
28 28 19 31 35 32 31 29 41 52 46 27 21 21 20 21 21 20 20 22 20 17 15 16 18 19 20 21 22 22 24 21 24 26 35 24 22 15 14 14 14 14 17 21 22
30 28 30 21 46 34 33 42 46 50 30 26 25 22 22 24 22 20 22 24 23 27 24 18 19 19 23 24 23 24 27 40 40 35 34 22 27 19 14 14 14 16 19 21 24
31 32 31 32 25 27 32 37 54 37 29 24 24 23 26 27 24 22 22 24 25 27 27 28 31 20 24 28 34 31 31 47 66 42 36 23 27 18 13 14 16 19 22 24 25
35 46 37 39 33 31 45 52 45 29 26 26 24 27 28 27 27 24 27 27 29 29 38 38 30 24 25 29 28 32 40 31 45 42 55 34 20 16 14 15 18 20 21 23 28
60 56 40 29 40 38 44 38 31 28 27 26 29 28 29 28 26 27 30 28 30 32 33 38 48 30 29 30 28 33 30 47 48 85 63 34 31 26 20 18 17 20 23 27 29
63 45 36 32 35 38 45 38 29 30 30 30 30 30 30 31 32 31 33 31 30 31 33 36 48 42 34 33 34 36 39 37 34 42 66 61 38 22 24 24 23 22 25 27 29
50 38 37 36 44 38 38 30 32 32 33 32 31 32 35 37 40 36 37 36 36 35 40 42 48 63 45 29 27 30 36 36 54 54 51 60 58 24 24 23 24 25 25 28 31
40 40 41 41 72 58 38 38 38 33 36 33 38 38 38 40 49 40 40 42 39 36 42 40 54 66 38 34 32 35 30 32 38 50 69 90 60 21 21 24 25 24 27 30 33
43 76 50 50 47 38 40 42 46 47 42 41 40 41 40 44 40 47 43 39 46 43 49 48 52 60 65 48 39 47 40 36 41 79 66 61 49 35 29 27 26 28 30 32 34
41 51 44 64 51 43 42 39 44 48 45 43 43 41 43 62 54 44 41 39 40 44 48 50 68 52 47 41 40 41 42 40 41 44 61 50 41 33 29 27 29 31 34 36 41
48 50 54 49 46 39 47 41 40 40 38 41 44 42 41 49 48 51 44 44 46 40 48 46 79 68 79 54 47 53 43 40 39 38 38 39 40 27 28 30 31 38 41 47 47
43 39 64 59 49 46 43 37 37 40 46 42 41 44 58 50 46 47 50 49 46 49 58 66 90 95 88 56 76 94 69 50 42 33 34 45 37 28 30 33 39 45 49 51 56

GFSSW_850_rhum_006.txt.gz
RH
33 33 31 29 29 28 25 24 25 26 28 16 16 16 22 23 22 18 18 16 12 10 13 15 15 8 8 5 5 6 6 6 6 7 6 6 6 9 10 10 11 12 20 47 63
36 34 34 33 30 26 25 24 24 26 23 15 17 20 21 23 25 17 16 15 11 10 16 11 8 7 6 6 6 7 8 8 6 6 7 6 6 8 8 9 11 16 22 36 51
39 37 34 31 27 27 24 24 26 26 21 14 18 20 19 21 27 19 14 12 12 13 18 16 11 8 8 8 8 8 9 7 8 10 8 8 8 9 8 9 12 13 20 27 33
36 35 32 29 27 25 26 28 26 25 23 15 17 17 22 27 22 18 19 14 11 14 15 13 10 10 10 10 10 11 10 11 12 12 12 12 13 12 11 11 14 15 17 24 29
35 33 30 27 26 28 28 26 25 24 22 17 19 22 26 25 22 22 23 21 18 17 14 13 12 13 11 10 12 12 12 14 14 15 14 14 13 12 12 12 16 15 22 24 26
34 31 30 29 30 28 28 23 20 19 19 21 23 25 27 20 22 22 23 21 19 17 15 16 15 15 14 14 14 14 14 13 14 12 12 14 12 10 10 12 15 16 21 23 25
33 33 32 31 28 28 28 26 24 22 21 21 24 25 23 21 21 21 22 21 20 18 16 15 17 17 18 18 16 14 16 15 14 11 10 12 10 10 12 14 14 15 18 19 20
35 33 32 32 33 32 30 30 28 25 23 22 23 30 22 23 22 20 20 19 20 19 17 16 18 17 19 16 18 15 14 11 8 10 11 10 12 8 9 10 13 14 14 17 19
33 34 34 34 34 32 29 28 27 26 24 24 28 28 20 21 21 20 21 20 20 20 20 18 16 15 18 20 16 12 14 13 13 9 9 10 13 9 9 8 10 12 12 13 16
33 35 35 32 32 30 29 27 22 24 22 23 22 21 20 20 21 21 20 21 20 18 18 16 16 16 12 15 22 19 18 16 16 12 12 15 16 12 11 10 9 9 10 11 12
33 33 34 30 29 28 27 28 31 27 22 22 19 18 18 19 20 16 17 19 18 16 15 12 18 18 16 16 15 14 16 16 15 12 15 17 16 13 9 9 10 11 12 13 13
31 33 33 30 28 28 29 41 36 40 22 19 18 18 18 19 16 16 17 16 15 15 12 13 21 16 14 13 14 13 15 19 17 15 18 18 16 12 10 12 12 12 14 16 17
28 31 32 32 31 32 46 26 28 25 34 19 20 18 19 20 17 17 17 17 14 13 13 14 20 14 14 15 18 15 22 23 24 20 15 16 13 13 11 12 14 16 17 17 19
19 27 29 30 28 40 45 18 19 23 36 20 18 20 18 17 18 20 17 19 17 17 14 16 15 15 16 16 19 22 19 23 25 26 29 19 22 12 12 14 14 15 17 19 20
26 20 26 26 45 38 38 25 28 35 65 22 18 19 18 17 16 18 19 19 18 16 16 24 18 15 17 19 19 24 22 26 24 26 26 20 20 14 12 12 13 15 16 19 21
27 22 27 34 33 39 29 27 33 64 56 24 18 19 18 18 18 17 18 19 18 16 13 13 15 16 18 18 18 21 24 23 21 26 46 24 23 21 14 14 13 13 16 20 22
30 29 25 28 54 32 29 41 56 53 24 23 23 19 19 21 19 18 19 24 26 31 25 18 17 17 20 24 20 24 31 52 59 54 50 22 26 24 17 13 14 16 18 21 24
35 30 34 26 24 32 32 42 58 33 25 22 21 20 23 22 22 20 21 23 25 28 28 31 34 20 22 26 32 30 33 61 68 54 50 30 31 18 12 13 14 17 19 21 24
45 55 39 38 27 26 53 53 45 28 24 24 21 23 26 23 23 22 26 27 29 30 39 42 32 22 24 24 27 31 38 31 49 54 64 43 28 20 15 14 17 19 20 24 26
61 54 33 33 29 40 52 45 29 25 23 22 28 25 28 26 25 26 28 27 30 30 31 35 52 30 26 26 27 31 29 49 60 89 64 38 39 33 24 26 25 25 24 27 28
60 50 32 26 38 50 51 35 27 26 27 30 28 28 28 31 31 30 30 30 30 30 30 34 47 45 36 32 34 32 38 39 36 51 71 76 47 29 31 29 29 26 27 31 29
49 48 32 36 48 41 37 28 28 28 29 30 30 32 35 35 38 35 35 36 35 34 39 42 50 69 49 31 25 27 34 35 73 68 61 68 62 30 28 25 27 27 27 28 31
40 42 40 50 76 57 34 33 32 29 33 32 36 35 34 38 48 40 39 40 38 34 47 44 57 67 44 34 31 37 33 33 38 63 67 94 66 28 29 29 26 27 31 33 34
44 80 50 47 39 37 37 37 41 41 37 36 36 36 36 40 36 44 39 37 43 42 45 45 51 58 72 55 43 51 41 38 42 66 59 58 48 35 30 29 27 32 37 37 38
41 48 44 67 45 40 37 34 39 42 39 37 37 37 39 65 54 42 37 39 37 42 42 48 72 55 50 46 47 51 49 44 45 43 56 48 40 32 28 27 34 38 42 44 44
58 48 46 41 39 36 42 36 36 36 34 36 40 35 38 46 46 54 45 47 48 39 45 50 85 77 83 59 51 56 51 48 44 40 39 39 39 27 26 34 39 44 47 52 63
56 42 67 53 46 48 44 34 33 35 43 38 39 42 60 47 49 50 51 50 49 52 60 61 88 100 84 65 75 89 62 48 42 35 36 48 37 29 31 43 50 54 54 72 77

GFSSW_850_rhum_009.txt.gz
RH
32 33 33 32 30 26 23 22 25 26 17 15 15 20 21 23 21 16 14 13 8 12 16 17 13 9 8 8 6 6 14 15 11 10 9 6 9 10 9 10 11 30 44 27 37
38 37 34 31 29 25 23 22 25 25 15 14 18 21 22 23 21 14 12 11 9 13 15 15 15 12 9 8 9 11 15 10 12 11 11 10 8 8 8 9 14 29 54 53 46
38 37 35 33 29 26 23 24 26 22 14 15 18 18 22 25 28 18 10 9 11 14 14 13 12 12 9 9 10 11 15 14 14 12 11 12 14 11 10 12 16 21 34 42 50
39 36 33 30 27 24 24 25 26 23 15 15 17 20 25 29 26 19 16 17 18 17 16 13 14 13 11 12 11 15 13 14 13 14 14 15 14 14 12 13 14 15 24 28 31
37 34 30 27 26 26 27 26 24 21 16 15 17 20 27 24 22 21 21 21 19 18 17 16 15 16 16 15 14 15 14 14 14 15 14 14 14 15 13 12 14 15 20 25 27
35 32 30 29 29 28 27 24 22 22 21 20 22 26 28 25 22 22 21 21 19 17 15 16 17 17 18 16 17 15 15 15 14 14 13 16 16 14 11 11 16 15 18 22 25
35 33 32 29 28 24 20 19 19 20 21 24 25 28 29 21 22 20 21 19 19 18 17 16 18 18 18 19 16 16 18 20 15 13 11 11 14 14 10 13 15 15 17 20 21
35 33 32 32 28 26 24 24 24 24 22 23 24 30 22 22 21 20 20 20 20 20 17 15 17 18 18 18 18 20 20 22 18 13 13 12 18 12 10 14 15 14 15 17 18
36 35 34 33 31 30 28 27 26 23 22 22 27 30 22 22 21 20 21 20 21 19 20 20 18 17 18 26 31 22 26 21 20 12 12 13 19 16 13 13 14 14 14 14 16
37 37 34 32 31 29 28 25 23 21 24 24 21 30 20 20 18 19 18 19 20 20 18 20 19 24 24 28 32 25 24 21 22 17 19 21 23 19 14 13 13 14 15 15 16
34 35 32 30 29 28 27 33 31 28 26 20 19 18 18 18 18 17 14 18 19 19 22 13 28 27 19 19 17 19 20 23 23 20 25 24 26 21 16 13 14 15 16 16 17
31 33 31 29 28 28 31 47 49 45 32 19 18 18 18 18 18 17 13 17 16 22 14 23 29 18 16 18 20 21 25 32 24 23 25 28 26 22 16 15 15 17 17 18 18
29 31 32 30 31 33 35 29 34 27 49 19 19 18 18 19 17 18 15 17 19 19 18 22 20 15 17 22 24 24 30 32 33 30 28 26 28 19 17 15 17 17 17 18 19
25 28 30 31 28 38 47 20 20 26 67 24 23 20 18 18 20 19 18 18 22 20 17 20 16 17 19 22 23 28 28 30 33 39 43 27 43 20 20 20 20 18 19 21 22
20 25 28 28 44 40 43 23 24 27 81 23 19 18 18 18 17 18 18 18 20 19 18 25 18 18 24 23 21 29 27 32 35 41 35 33 33 22 20 21 22 24 22 22 23
26 24 27 27 33 41 36 22 26 86 69 27 18 20 20 18 18 17 19 21 19 22 17 18 16 19 20 22 25 26 34 38 41 40 61 38 38 36 23 18 21 24 23 23 23
29 30 24 32 40 31 26 29 83 80 27 27 25 21 20 25 22 19 24 35 42 49 46 30 23 21 22 29 30 35 48 75 68 72 69 34 39 36 26 20 24 26 21 20 22
38 34 33 23 31 30 30 70 64 40 32 22 22 22 29 25 24 24 30 37 37 39 45 48 53 31 26 31 36 41 38 83 74 83 72 42 47 32 23 20 21 19 20 25 26
52 44 30 30 26 29 54 84 70 36 28 32 25 28 30 29 24 27 35 38 37 40 53 62 48 34 27 26 31 40 60 38 55 60 84 63 42 25 25 28 27 28 26 27 30
56 62 30 32 25 49 78 47 36 27 27 29 36 32 40 34 38 34 38 36 37 35 35 44 63 43 39 33 32 34 35 64 82 93 84 58 53 47 41 35 33 36 31 30 32
59 58 30 35 36 54 82 44 30 26 28 38 40 39 38 42 41 40 42 43 37 40 37 50 62 62 49 44 49 42 49 48 50 70 93 98 75 37 38 37 42 31 32 34 35
54 67 30 50 61 59 63 34 29 29 30 31 36 43 44 45 46 48 50 47 37 37 56 50 59 82 57 40 37 31 45 46 84 90 85 89 72 37 40 37 31 33 38 38 39
47 48 42 48 92 86 36 39 43 39 37 39 40 40 36 43 54 50 44 41 37 44 53 50 72 87 66 48 50 51 46 50 58 72 72 94 72 36 34 34 36 43 43 45 46
48 82 48 48 46 47 46 45 47 41 38 37 38 37 44 52 50 48 45 46 42 43 46 46 63 71 86 67 58 65 57 53 60 88 74 71 58 42 36 40 44 48 51 51 54
44 53 48 83 62 48 48 41 50 53 40 36 41 40 46 63 58 53 52 53 48 45 45 56 77 70 66 60 57 53 55 55 62 60 72 60 56 44 40 50 54 59 60 58 67
56 61 47 46 39 50 47 47 43 39 39 47 43 50 48 58 59 70 65 65 61 51 64 60 82 76 86 69 65 70 65 60 57 58 57 54 49 39 41 65 67 68 66 71 76
52 51 60 58 52 69 66 41 45 40 43 38 42 50 59 57 54 55 54 55 56 67 72 72 83 98 85 78 83 87 65 59 56 46 51 67 59 67 67 66 70 72 75 79 79

GFSSW_850_rhum_015.txt.gz
RH
30 28 26 26 23 23 22 22 24 24 15 18 23 24 23 13 10 8 9 11 12 18 17 16 13 10 9 12 9 8 19 20 13 12 12 12 12 11 13 24 19 34 30 35 74
36 34 31 28 25 24 23 22 27 19 16 21 22 22 23 16 10 10 13 20 21 19 16 15 10 10 10 10 11 13 21 15 12 11 13 14 12 10 17 36 41 32 26 42 68
38 35 32 28 26 23 22 26 23 16 18 21 20 25 26 21 12 21 22 19 16 16 16 16 12 12 13 11 12 16 20 14 15 13 14 17 16 14 17 29 36 24 30 45 62
36 34 31 28 25 21 24 24 18 16 19 20 20 26 25 21 15 21 20 20 17 15 16 17 15 16 20 19 14 17 16 15 14 14 16 17 14 15 15 13 13 18 21 30 47
34 32 28 25 23 24 25 25 19 17 18 17 23 25 23 22 22 21 20 18 18 14 15 16 17 19 23 18 16 17 16 16 16 15 15 15 15 15 14 13 17 27 32 31 27
31 29 26 25 25 26 26 25 21 16 16 23 28 26 23 23 22 21 21 18 17 12 13 17 17 18 20 21 19 18 18 17 17 16 17 17 17 16 13 13 15 26 32 31 32
32 31 30 29 28 27 26 23 20 20 25 26 29 22 22 23 21 21 21 21 17 20 20 18 18 17 19 22 20 19 21 22 19 18 17 15 14 15 12 13 16 21 30 33 30
33 32 29 26 24 23 22 22 23 24 24 24 28 24 22 21 20 21 20 20 19 19 20 20 20 17 18 20 24 23 23 26 19 20 15 13 21 14 13 16 16 21 29 35 32
35 33 30 28 27 26 24 22 21 23 23 25 25 28 22 20 19 18 16 14 16 19 19 19 20 19 18 22 26 29 27 23 22 22 24 17 21 16 16 19 15 15 22 25 24
35 33 32 30 29 28 26 23 21 22 25 26 25 23 21 19 19 18 14 17 19 18 18 20 21 27 29 28 32 27 25 25 26 24 32 32 30 28 23 19 18 17 17 19 20
35 33 31 29 28 36 34 28 27 24 19 20 20 19 18 19 19 18 11 14 16 15 26 22 28 24 21 21 21 21 28 34 28 25 33 36 40 33 25 20 20 18 20 19 18
33 32 30 28 29 33 34 38 41 37 25 20 18 18 18 18 17 18 14 17 17 23 19 31 26 19 21 24 22 27 29 32 34 29 36 38 37 24 21 22 26 25 24 21 19
33 30 29 27 28 24 25 35 32 32 34 20 19 20 19 18 18 20 19 19 22 22 27 31 21 18 22 27 27 26 30 31 36 37 33 38 33 25 22 23 24 25 25 24 22
29 29 27 27 26 28 24 26 29 33 47 29 22 19 18 18 18 19 19 20 19 21 20 22 17 19 27 25 26 33 25 31 37 42 47 38 46 29 23 22 28 26 24 23 23
26 27 28 27 27 33 27 25 26 35 65 27 20 19 19 18 18 22 24 19 22 26 23 26 18 24 25 24 26 34 35 39 39 46 44 41 43 36 33 25 32 30 24 25 25
22 26 28 27 39 34 34 22 29 71 60 26 20 21 22 22 21 25 28 24 27 33 32 31 20 22 23 25 30 34 41 47 50 52 62 42 45 48 38 32 32 28 28 26 25
23 26 26 26 34 31 34 25 70 70 35 30 26 23 27 27 29 32 40 46 51 34 52 45 37 32 27 35 36 43 58 71 58 75 67 48 47 46 32 28 26 27 27 30 28
31 24 23 28 34 31 26 62 54 50 36 28 27 25 30 27 31 40 39 50 45 48 62 63 56 43 34 33 38 41 52 80 62 85 78 53 54 43 31 35 30 35 34 33 31
31 33 28 27 33 29 46 74 63 53 33 32 32 35 41 38 32 38 48 49 49 48 54 70 55 42 38 40 36 43 60 48 68 75 89 72 54 41 36 44 42 42 42 46 45
37 32 31 30 32 48 61 57 37 31 33 38 38 42 42 48 43 43 47 45 46 50 44 56 73 49 48 39 39 40 41 66 84 83 83 76 71 61 44 52 44 49 49 49 48
57 30 42 36 46 38 65 54 31 30 32 40 44 47 48 48 49 51 52 45 42 42 46 51 66 60 46 49 51 57 64 63 64 82 96 98 83 56 50 53 53 54 56 54 53
55 44 50 52 49 68 56 35 32 39 36 40 44 46 48 49 56 55 54 46 40 44 52 54 70 81 56 49 50 48 63 65 89 82 90 90 76 44 44 49 57 64 62 59 57
44 48 48 48 76 81 45 48 46 40 45 43 43 43 49 53 57 50 52 44 40 44 48 50 72 79 52 46 47 57 57 62 72 83 82 91 76 46 43 56 64 65 65 65 64
40 73 44 47 52 51 49 48 48 42 42 40 43 44 51 56 56 54 57 55 49 48 48 49 68 64 76 51 64 72 66 63 66 93 82 78 64 53 56 71 69 67 67 66 65
43 52 58 78 60 53 52 49 51 49 41 41 53 54 50 60 58 70 64 62 53 54 55 61 74 71 72 68 70 71 74 71 81 79 87 73 73 62 70 76 71 71 74 73 74
46 50 50 59 57 46 60 45 56 46 45 50 61 54 54 61 55 64 64 65 65 59 63 72 82 82 86 78 81 86 77 80 80 79 81 76 71 58 71 74 77 78 78 79 72
54 54 40 74 64 67 68 46 46 46 46 44 52 57 56 56 54 53 55 55 55 66 73 75 89 94 82 93 93 81 76 76 66 57 62 77 64 76 83 79 73 75 74 76 82

GFSSW_850_rhum_021.txt.gz
RH
33 29 26 25 23 22 21 19 22 24 18 22 24 22 15 12 22 22 21 18 17 16 13 14 11 12 9 8 9 10 13 14 12 13 14 14 12 13 28 38 28 38 35 40 62
37 32 28 26 23 22 20 21 24 20 19 24 23 23 15 22 22 22 21 17 16 16 11 11 10 10 11 12 13 14 16 15 12 12 14 16 12 12 21 33 40 34 32 40 53
40 34 30 27 24 23 22 23 23 17 23 22 24 26 17 21 21 22 20 16 15 15 12 12 10 11 14 14 17 17 17 16 16 13 16 18 17 14 24 22 21 18 23 40 52
40 35 32 28 26 23 22 25 17 21 21 21 27 23 17 17 27 22 20 16 16 15 13 13 12 15 20 17 15 18 17 16 16 15 15 15 15 17 20 13 13 17 21 34 50
39 35 34 30 26 22 25 19 19 21 20 28 24 21 21 22 23 21 21 16 16 15 12 13 14 18 22 20 19 19 18 18 18 16 16 17 17 16 16 14 14 17 24 28 37
36 34 33 27 23 25 22 17 20 19 28 29 22 21 21 25 21 20 21 17 18 16 16 15 18 19 22 21 22 21 21 21 19 20 18 19 19 17 14 13 14 16 22 28 27
33 30 27 25 27 25 19 18 18 27 28 25 22 22 22 22 19 18 18 16 20 19 18 18 16 17 20 24 23 20 18 19 22 21 19 18 17 15 14 14 16 17 29 32 27
32 31 31 31 29 25 20 18 26 26 28 27 22 21 22 20 18 14 14 15 20 19 18 17 17 14 17 23 18 20 21 20 19 22 23 19 22 17 20 20 16 18 19 32 35
36 34 31 29 26 24 23 25 25 25 25 25 22 20 22 19 18 14 16 18 19 18 18 18 15 17 17 20 19 22 19 23 23 27 26 25 23 22 25 25 27 24 21 21 39
35 33 32 30 26 25 24 24 24 25 24 21 22 18 18 19 19 14 18 17 17 17 14 15 14 23 24 18 21 25 24 27 28 24 29 31 29 25 26 26 26 20 19 18 20
35 33 32 38 29 24 24 26 21 19 18 19 20 19 19 18 20 16 17 15 13 15 27 21 24 26 24 24 24 23 28 30 28 28 31 35 32 23 28 30 32 31 23 21 23
34 33 33 40 30 28 26 24 24 24 21 21 20 18 19 20 21 18 17 16 17 26 24 26 28 23 26 25 24 27 29 26 29 30 35 33 27 24 27 30 33 31 29 25 22
32 32 35 28 32 29 25 25 28 29 21 21 21 20 20 21 26 25 20 21 22 29 30 32 23 24 24 30 33 32 28 31 32 34 35 32 28 28 23 27 27 27 28 26 25
31 30 31 30 26 30 27 27 29 31 44 32 23 20 20 19 22 26 22 21 25 24 27 27 22 28 33 30 32 37 29 36 40 40 36 37 31 31 31 28 31 32 26 25 25
30 29 27 29 26 30 27 24 24 44 47 25 23 21 22 21 23 27 26 23 33 31 29 27 25 32 35 30 31 37 40 43 42 44 42 40 32 32 31 34 35 35 38 35 33
30 30 28 26 24 25 22 21 36 46 43 28 24 26 25 27 30 28 30 26 30 38 38 36 29 30 31 29 35 39 43 42 48 47 49 46 40 43 39 41 39 40 50 44 39
27 29 28 30 28 29 21 30 57 57 37 32 28 29 32 35 38 39 45 50 49 32 55 43 38 38 34 37 38 42 44 46 50 55 51 47 43 48 45 41 43 50 57 51 48
26 27 28 29 32 30 23 54 50 52 40 32 30 36 35 35 41 47 45 51 50 50 59 55 40 42 42 40 42 47 49 60 50 60 58 53 51 48 44 48 50 50 53 52 52
30 30 29 28 27 30 38 68 59 50 35 35 36 38 40 42 40 47 55 52 52 55 53 64 47 44 45 46 40 46 58 51 66 73 74 55 50 44 49 48 52 56 54 52 53
34 29 40 36 31 33 59 57 41 41 37 36 41 41 45 53 47 50 51 47 48 55 49 59 63 49 45 42 43 43 46 56 66 73 67 52 59 45 51 48 52 58 63 59 56
37 39 47 42 51 37 63 55 40 40 39 40 47 52 51 53 52 55 54 48 45 50 49 52 61 46 44 53 55 52 56 62 61 72 82 89 54 49 49 49 49 62 68 64 62
39 62 55 53 43 65 58 41 39 43 41 46 47 50 52 55 60 59 59 50 47 48 56 58 65 64 46 51 51 52 56 56 63 64 77 79 62 43 49 54 59 70 70 64 65
47 52 52 45 71 79 52 52 47 44 50 45 50 52 54 60 63 58 56 54 49 50 55 54 66 57 34 48 45 58 58 61 67 74 75 83 55 42 52 56 66 67 60 52 57
40 79 46 39 46 58 56 52 54 45 49 50 53 50 56 61 65 63 62 58 55 56 53 53 67 52 49 38 49 63 65 64 65 86 66 68 51 44 43 50 64 63 57 65 64
36 66 60 76 60 57 53 49 55 50 46 49 53 52 55 65 65 70 65 58 56 59 61 62 74 71 66 62 68 70 70 68 73 68 79 59 57 50 48 57 63 60 58 68 74
41 56 57 67 56 54 64 52 56 54 48 54 60 56 52 57 48 64 62 64 59 61 67 73 75 84 90 77 76 81 67 70 73 72 74 70 72 52 62 72 69 67 69 77 88
43 47 46 83 64 65 63 55 53 51 53 50 54 58 60 57 52 53 55 60 59 62 71 76 84 87 78 80 79 73 55 67 66 68 63 63 46 63 72 67 65 67 78 88 89

GFSSW_850_rhum_024.txt.gz
RH
36 32 28 25 22 21 20 20 20 25 19 23 23 17 12 20 23 22 21 19 17 15 10 14 14 13 9 10 10 8 7 9 9 9 10 10 9 12 22 24 30 32 33 43 63
38 34 28 25 23 22 21 20 23 22 21 24 24 16 20 23 21 20 19 16 17 13 12 14 13 10 10 12 11 7 7 9 8 9 8 9 8 11 15 16 19 29 43 53 71
40 35 29 25 23 23 21 22 25 18 24 23 23 17 20 22 21 20 18 16 16 11 11 11 10 12 11 12 12 10 9 10 10 10 9 9 10 10 10 11 12 13 28 52 67
42 37 31 27 25 23 22 24 19 23 22 26 25 17 20 16 18 20 18 15 16 14 11 12 13 11 10 9 10 11 11 8 10 12 11 10 10 11 11 10 15 18 26 42 50
41 36 33 28 25 22 24 22 21 22 24 27 21 18 21 21 21 21 19 18 16 14 14 14 11 11 10 11 12 13 14 15 14 14 14 16 13 13 12 12 15 23 34 38 40
39 35 31 28 24 23 24 20 21 23 29 25 23 21 23 18 19 18 20 17 16 17 15 15 16 14 16 16 14 17 15 16 16 16 16 15 14 14 13 14 16 25 28 34 38
35 33 30 26 24 25 19 20 22 28 28 24 22 21 20 20 18 16 17 16 17 16 18 15 17 16 18 18 20 17 16 15 16 16 17 15 13 12 15 15 14 22 27 31 36
31 28 26 27 27 20 20 21 27 28 28 22 22 21 20 19 17 14 14 18 18 18 16 15 18 19 19 18 15 13 13 13 16 16 18 16 14 13 18 19 16 16 20 33 37
33 32 31 28 23 21 20 26 26 27 26 23 21 22 18 18 18 14 15 19 19 19 17 14 16 18 16 13 12 11 10 12 16 18 17 16 15 16 18 20 19 18 19 21 28
36 32 30 27 23 23 26 24 27 26 23 22 20 18 18 19 17 16 18 19 20 19 18 17 15 13 12 9 10 13 13 17 16 16 17 19 19 16 20 19 19 19 20 21 25
34 33 30 27 26 25 24 24 24 24 23 21 21 19 19 20 20 19 16 15 16 18 15 18 14 17 17 17 16 15 17 17 16 19 23 23 18 18 19 19 20 20 21 23 26
35 38 39 27 25 26 28 31 22 22 21 20 19 20 22 21 17 20 16 16 16 16 18 15 20 19 17 17 18 19 19 20 20 22 26 22 19 18 20 22 23 21 24 23 24
38 35 37 36 32 30 25 24 19 21 18 22 21 21 21 22 26 24 22 20 16 17 17 17 18 20 19 22 23 23 23 27 27 24 25 22 22 19 20 21 22 24 24 26 29
37 38 32 31 32 28 26 26 23 25 19 21 19 20 21 20 22 27 22 22 18 20 18 19 20 23 23 25 26 25 24 31 30 29 21 26 24 24 21 23 25 29 32 35 34
32 31 31 30 30 32 27 26 28 38 30 24 20 22 24 21 23 26 26 22 20 22 22 22 22 25 26 28 28 31 33 33 33 31 28 26 23 28 22 28 29 34 39 41 42
30 29 28 28 28 29 24 21 34 34 34 26 21 21 23 26 27 26 27 27 29 24 20 24 26 25 28 27 28 31 32 32 34 34 38 33 31 28 27 32 31 36 43 47 48
30 29 27 26 28 23 21 31 31 32 31 26 25 23 25 29 29 28 30 35 30 28 31 26 28 27 31 27 29 27 32 33 43 43 37 34 33 37 35 33 35 38 44 49 50
28 29 28 30 27 23 20 36 32 40 31 26 25 25 28 29 32 32 30 32 33 31 30 32 36 31 34 34 36 36 36 45 48 39 35 38 31 37 34 36 39 42 45 48 51
28 30 28 32 28 27 36 43 41 31 27 26 26 28 32 32 30 33 39 38 38 38 37 38 34 34 35 34 34 37 43 40 52 58 56 32 36 36 36 38 39 41 42 46 50
37 33 33 28 27 28 40 41 35 33 31 26 30 32 34 35 34 34 38 39 39 41 41 43 42 37 32 36 36 36 36 48 45 77 48 25 33 28 43 38 38 40 42 48 52
33 39 43 35 34 40 44 40 33 39 37 31 34 37 37 39 36 41 42 40 38 40 38 34 43 36 33 37 41 40 43 45 42 54 59 55 27 33 33 35 39 42 50 52 54
37 40 46 52 42 45 39 32 38 38 41 39 38 38 39 43 44 45 46 42 46 42 39 45 45 38 31 38 39 39 42 39 52 52 54 54 40 29 30 38 45 46 54 56 56
54 57 56 47 62 57 45 42 42 37 39 37 43 40 42 46 51 46 46 52 48 42 43 43 45 34 34 40 41 43 41 44 43 56 57 72 41 29 37 42 36 49 47 47 50
48 73 50 45 52 38 42 43 45 47 46 44 44 40 43 47 45 52 51 52 57 51 52 50 46 34 31 26 32 35 33 38 44 70 50 46 37 29 26 27 35 43 48 48 52
41 63 58 65 50 41 40 39 42 44 45 44 42 40 42 57 49 53 49 50 51 56 55 48 50 45 40 37 36 41 44 39 45 47 58 47 35 30 29 32 38 48 51 51 53
55 62 64 63 54 41 50 43 40 44 38 43 41 42 36 42 34 49 42 44 39 51 51 53 58 66 66 46 43 50 42 40 44 45 44 43 46 31 36 41 49 51 52 55 60
41 46 58 73 56 50 48 42 40 42 52 46 41 44 57 43 42 52 54 52 46 46 56 62 70 75 84 59 62 80 48 39 42 39 44 51 36 35 37 47 52 54 58 63 72

GFSSW_850_rhum_027.txt.gz
RH
38 33 30 26 24 22 21 20 20 21 23 20 22 15 12 21 20 20 19 18 18 13 10 17 18 14 10 8 8 7 7 9 8 8 8 7 7 8 12 13 16 19 25 30 51
40 37 31 26 24 22 22 21 20 25 19 23 21 13 22 21 20 16 16 17 15 13 16 15 13 9 8 8 6 6 6 7 6 6 6 6 6 9 12 12 14 19 23 37 48
42 38 33 27 25 23 22 20 22 20 23 23 20 18 22 21 27 16 16 16 12 12 18 13 9 8 8 7 7 6 8 7 6 6 6 6 6 7 8 9 11 14 21 34 40
42 39 35 29 26 23 21 21 24 20 23 24 21 19 21 17 17 18 16 16 13 10 16 12 10 8 8 8 7 7 6 5 6 8 8 7 7 8 7 9 11 12 20 28 34
42 39 34 29 25 22 21 24 20 23 23 27 18 18 19 25 16 18 16 17 16 16 12 10 8 8 7 7 6 7 7 7 8 10 10 11 9 8 8 9 11 14 20 28 32
40 36 31 28 23 23 24 21 22 22 29 23 18 20 22 16 19 17 17 16 15 12 11 10 9 8 7 8 9 10 11 12 12 12 12 12 10 11 10 11 11 14 18 23 25
37 34 30 27 23 24 22 22 21 29 27 23 21 18 24 18 17 15 15 16 16 16 12 13 12 9 10 13 12 11 12 12 12 13 13 12 10 9 11 11 12 14 16 19 23
33 31 28 25 24 22 21 21 28 29 24 23 20 19 20 19 18 15 14 14 16 18 17 15 15 14 12 14 11 11 11 13 12 13 14 13 14 10 13 13 13 12 16 18 22
29 27 25 26 23 20 21 27 28 27 24 23 21 31 16 16 16 15 16 14 18 19 18 16 15 12 15 13 12 10 12 10 14 12 12 12 12 12 14 14 13 12 12 15 20
32 29 28 24 21 20 26 26 28 26 24 22 26 19 15 15 15 17 17 20 18 18 16 14 12 12 11 10 12 10 9 11 11 12 11 12 12 12 15 14 14 15 15 16 16
33 31 27 23 21 26 26 26 27 29 21 18 15 16 14 15 16 16 18 17 17 16 14 13 13 13 12 12 11 10 10 11 11 13 14 15 14 14 15 14 16 16 17 19 23
33 30 27 26 27 26 29 34 36 23 18 19 19 19 19 18 14 17 17 15 15 13 13 11 15 15 12 12 12 13 15 15 15 15 17 16 15 15 16 18 18 18 19 23 26
43 40 30 26 26 29 45 40 19 21 16 18 19 17 19 17 18 18 17 14 11 12 10 13 16 15 15 15 16 17 18 21 20 17 16 17 17 17 16 18 19 20 22 24 25
39 40 37 30 34 38 44 22 18 23 20 16 16 16 17 18 19 21 22 17 13 12 11 15 16 16 17 19 20 20 20 23 22 21 20 17 19 19 18 20 22 27 30 29 28
39 33 33 35 38 30 31 23 19 34 29 19 17 19 17 18 19 20 21 16 13 16 17 19 17 19 21 23 22 24 25 24 24 24 19 19 17 21 18 23 25 29 33 35 37
32 31 30 33 38 32 24 24 24 39 33 21 17 18 19 20 20 21 20 20 20 15 14 17 19 20 22 22 22 22 26 23 25 23 32 18 21 24 20 22 27 31 35 38 40
30 30 31 31 42 27 22 32 26 35 21 21 20 18 19 22 23 20 21 24 23 25 25 20 22 22 25 23 23 22 25 34 37 36 36 25 25 29 27 26 27 31 36 38 40
31 30 29 26 24 23 22 26 34 30 20 18 18 19 22 21 25 24 22 25 24 22 21 24 35 25 23 26 28 27 28 42 45 37 29 25 23 30 26 29 32 34 36 38 40
30 30 33 30 25 21 31 34 25 20 20 20 19 22 25 24 24 26 28 29 30 28 29 28 29 25 26 25 27 30 35 29 38 50 46 21 28 30 28 30 32 33 34 38 39
46 43 48 32 26 25 31 35 27 24 21 18 23 25 26 26 26 26 28 31 31 29 29 30 36 28 24 26 28 26 28 40 38 69 43 19 21 21 36 33 31 32 34 38 41
46 33 45 26 26 28 35 30 28 28 26 23 25 26 26 30 26 30 32 33 29 30 26 23 29 29 22 27 25 27 32 34 31 37 50 43 26 23 24 24 26 29 34 37 41
46 33 37 31 29 26 34 27 30 29 32 28 27 26 28 29 32 34 35 35 36 32 30 32 30 34 22 25 28 28 30 30 44 40 41 51 42 22 21 26 30 30 35 42 43
36 45 42 41 46 38 36 34 30 30 28 29 34 30 31 32 40 35 37 44 37 34 38 33 36 35 27 32 32 33 28 30 33 46 48 64 42 22 25 29 32 33 35 38 39
40 60 44 46 40 28 34 33 37 38 35 32 33 32 34 36 33 41 42 43 47 42 45 45 32 32 36 27 23 28 26 23 28 51 50 42 31 23 22 25 26 27 32 38 40
41 46 48 48 40 31 30 30 34 36 34 32 33 30 33 42 37 40 37 44 44 48 42 39 47 32 32 26 24 25 28 28 31 30 47 38 33 28 26 28 31 33 40 40 41
37 46 50 47 38 34 43 33 31 33 30 32 32 30 29 41 29 37 32 31 33 40 39 38 52 56 52 31 25 29 28 28 28 30 32 33 34 28 30 29 32 37 39 42 49
39 48 47 56 40 39 38 33 30 34 42 30 30 30 42 33 35 38 40 37 33 36 44 49 60 59 76 52 55 75 43 28 29 29 32 44 34 27 29 36 44 52 56 64 81

GFSSW_850_rhum_030.txt.gz
RH
40 38 34 30 26 23 21 18 19 17 19 20 20 20 13 18 19 21 27 20 18 14 8 12 20 17 14 10 9 7 10 12 11 12 10 8 8 8 11 11 14 22 22 39 51
41 39 37 32 27 26 23 20 19 17 23 19 23 16 17 21 20 30 19 16 14 10 12 20 15 13 10 8 7 7 9 8 6 6 6 6 6 9 12 12 15 22 35 45 48
41 39 38 33 29 26 23 20 19 21 20 24 21 16 22 22 23 19 15 15 10 12 17 15 10 9 8 7 6 6 9 6 6 6 5 6 6 8 8 10 14 16 31 40 44
41 41 38 33 29 25 22 21 19 23 22 23 21 19 22 19 21 16 16 14 11 13 17 11 8 8 7 7 6 7 5 5 6 7 6 6 6 6 7 9 10 15 20 36 37
42 40 37 32 28 24 22 20 23 20 23 25 20 20 20 26 18 16 15 15 14 14 17 11 9 7 7 6 6 6 5 6 6 8 9 8 7 7 8 9 11 15 20 28 30
39 39 35 31 27 24 21 22 20 23 25 26 18 19 20 25 15 15 15 14 13 12 10 9 8 7 6 6 7 7 8 8 9 10 10 9 9 10 8 9 10 14 19 25 29
38 37 33 29 26 22 22 20 22 24 28 23 18 18 26 21 14 13 13 14 14 14 12 11 10 8 8 11 9 9 11 10 11 11 12 10 11 10 10 11 11 12 14 19 22
37 34 32 27 23 23 20 22 23 29 26 23 16 16 31 18 16 14 12 12 13 14 14 12 13 13 12 11 9 9 10 14 11 11 12 12 15 8 11 11 11 11 13 15 20
34 32 30 25 23 21 21 24 29 28 25 22 18 19 22 14 15 12 13 12 14 15 16 14 14 10 12 12 12 11 14 14 14 10 11 12 13 11 13 13 12 11 12 15 16
31 28 26 25 22 21 24 28 29 26 23 22 28 25 15 12 13 14 14 17 14 16 13 14 13 13 12 13 18 13 9 9 11 12 10 11 11 12 13 13 12 12 11 13 14
33 30 28 24 22 23 28 29 32 32 29 18 14 16 12 11 12 13 15 16 16 15 16 12 14 15 12 11 9 9 9 9 9 12 12 11 12 13 13 13 14 15 16 22 33
34 30 26 22 22 28 30 45 38 28 20 17 16 16 15 15 13 14 16 16 14 16 13 11 14 14 11 11 10 10 12 13 13 13 14 14 13 14 15 16 17 19 24 27 33
36 31 29 26 28 28 40 49 40 22 16 16 16 14 17 16 14 14 17 14 12 14 10 17 16 12 12 13 14 13 15 21 19 15 14 15 16 17 16 17 19 22 23 25 30
43 33 27 27 30 37 44 29 31 24 20 15 15 14 16 16 16 16 16 16 11 10 9 16 13 13 14 16 18 18 20 21 19 20 21 15 22 19 18 20 21 25 26 25 30
42 43 36 34 51 36 44 23 19 27 40 15 14 16 14 16 16 16 15 13 13 13 14 17 16 17 18 23 19 22 21 21 22 24 22 17 24 18 18 23 27 29 32 34 36
35 34 36 35 45 49 30 22 18 45 45 18 14 16 15 16 17 16 15 17 17 12 14 16 16 19 21 19 20 19 23 22 23 24 40 23 19 24 21 22 28 30 33 36 38
32 31 45 48 51 28 22 28 30 41 16 19 17 16 18 19 18 17 18 20 22 23 24 19 20 20 20 22 21 20 24 45 51 49 49 24 24 30 26 23 26 31 35 37 39
31 30 30 33 39 26 24 34 42 26 17 13 16 17 21 19 21 20 20 23 21 24 20 24 36 23 20 24 26 25 25 53 55 64 50 24 25 35 26 27 29 31 34 37 39
32 30 39 26 24 24 44 40 27 18 17 17 17 20 23 22 22 22 25 26 26 28 30 25 30 22 22 21 22 26 37 25 33 45 61 28 31 28 27 29 30 30 32 35 37
39 34 47 26 23 23 44 39 26 20 15 15 21 19 23 21 24 24 25 26 27 25 22 25 34 23 19 21 27 24 21 39 46 69 51 25 25 41 33 32 29 29 32 34 36
48 37 46 26 24 38 40 32 25 21 21 18 19 21 21 23 22 25 28 29 25 25 22 22 29 28 20 25 23 25 27 28 27 36 56 57 33 22 24 25 28 27 28 32 38
47 40 45 22 33 28 36 25 25 25 28 25 22 20 23 24 26 29 31 35 31 27 29 27 28 41 22 20 22 24 28 28 62 47 57 60 48 20 21 24 26 29 33 36 38
38 54 34 27 47 40 31 27 24 24 22 25 28 25 26 28 37 30 40 37 32 35 43 34 37 50 34 32 29 24 22 23 29 52 58 72 46 19 23 38 34 33 36 41 40
46 63 40 47 44 30 33 33 34 32 29 27 27 27 29 33 29 36 43 40 41 42 37 44 31 31 42 27 22 24 21 20 25 61 54 52 38 28 26 34 32 30 34 36 36
47 42 34 49 40 29 26 26 32 36 30 29 29 27 30 36 34 36 37 43 40 42 38 37 46 32 30 24 23 22 21 21 24 29 44 38 31 28 31 29 28 44 46 45 51
48 42 42 35 29 32 40 29 28 26 30 30 29 27 28 38 30 35 32 32 34 36 35 36 56 60 57 27 27 30 25 28 25 27 26 30 33 27 27 39 46 48 56 54 71
47 43 42 48 38 38 39 30 27 29 37 28 26 29 47 37 41 38 36 31 28 36 40 47 67 71 78 60 63 80 52 29 27 27 31 44 32 27 39 48 52 55 63 69 75

GFSSW_850_rhum_033.txt.gz
RH
35 35 36 33 29 26 23 19 17 15 13 16 20 18 18 14 17 20 21 23 20 16 11 9 15 11 15 15 14 14 15 15 14 15 13 9 9 10 12 19 28 28 48 54 51
37 37 37 35 32 28 23 20 18 16 15 22 18 21 16 17 21 21 28 26 15 11 9 10 12 13 18 12 13 11 15 10 8 10 9 8 8 10 13 17 42 47 51 52 50
38 39 39 37 33 28 23 21 18 17 18 20 22 20 20 23 22 25 16 15 10 10 14 17 16 15 14 12 8 7 10 8 9 6 6 9 9 11 13 20 35 50 51 49 48
39 40 40 37 33 26 23 20 18 17 22 21 22 20 22 23 36 15 15 14 11 13 14 13 12 11 11 12 7 7 7 7 8 7 6 7 6 8 11 15 19 40 44 45 45
40 40 39 36 31 25 23 20 18 21 20 24 23 22 23 27 26 15 15 15 15 13 14 13 14 9 13 8 6 7 8 7 7 10 9 7 7 8 10 13 16 29 39 40 40
40 39 38 34 29 25 22 19 20 20 24 25 25 22 22 36 16 14 13 14 14 15 15 16 12 10 7 9 9 6 7 7 8 10 10 10 10 10 10 10 18 21 33 32 34
37 38 36 32 27 24 21 20 20 23 25 28 22 20 23 22 16 14 13 13 14 14 14 11 11 11 11 13 8 9 13 12 12 11 12 11 14 12 9 10 14 16 24 27 29
36 35 34 30 24 21 21 20 23 24 29 27 19 19 16 21 18 14 12 12 11 14 15 12 11 13 12 10 9 11 15 19 14 14 13 14 21 12 11 11 12 13 13 23 27
34 33 29 24 22 22 22 22 25 30 28 23 20 20 32 15 13 13 11 15 14 14 14 10 13 13 12 15 19 15 20 20 16 12 15 15 19 14 12 13 13 12 13 14 24
32 30 26 23 24 22 22 27 30 28 26 24 24 40 27 15 14 13 13 14 14 15 14 14 14 19 20 22 28 17 18 18 20 12 10 13 17 16 13 13 14 18 24 38 37
30 27 25 25 23 22 28 32 29 29 31 22 19 24 12 11 11 13 14 16 17 16 21 15 23 24 15 13 11 11 14 17 17 14 13 15 18 18 17 19 33 37 40 44 46
34 29 27 24 23 26 30 38 44 43 29 22 18 17 13 15 13 15 15 16 15 23 20 19 24 16 12 12 13 13 17 25 18 16 15 16 18 22 20 23 28 33 38 43 47
36 29 26 24 25 28 29 51 47 35 25 16 16 14 16 17 16 15 16 17 18 21 22 26 17 11 14 22 23 25 28 26 23 20 18 19 22 25 22 23 25 28 33 39 46
38 31 24 26 29 27 37 49 40 23 33 20 16 15 16 16 16 16 15 16 15 20 21 20 15 16 17 25 24 31 27 26 25 28 34 21 35 28 27 28 30 30 32 39 43
45 31 28 32 51 46 48 42 20 23 61 19 17 14 14 17 16 16 13 16 20 16 21 20 19 25 29 25 22 28 23 26 27 32 32 33 32 30 27 40 41 38 36 38 41
40 35 34 42 50 45 41 23 16 67 49 22 17 18 16 17 17 15 15 16 15 16 21 20 20 23 25 21 21 22 27 32 34 38 55 42 37 35 31 38 41 38 37 39 41
34 36 44 49 54 36 24 19 58 74 23 21 21 20 22 20 20 20 20 26 33 29 29 22 25 24 20 28 24 28 39 65 58 73 62 48 52 59 42 34 37 42 39 39 41
33 35 41 34 44 27 24 56 56 30 22 17 20 21 27 21 23 22 26 33 31 37 34 40 40 28 24 27 29 32 32 77 60 81 65 36 52 48 37 35 35 37 39 40 41
32 31 28 27 25 26 43 73 51 26 19 21 20 27 26 24 25 28 34 34 31 33 41 44 38 26 25 23 27 30 48 27 42 63 75 51 43 38 37 41 34 37 37 39 40
32 30 32 24 22 24 67 66 32 23 17 19 26 25 32 28 29 31 33 32 31 29 28 28 42 24 23 21 28 30 25 49 66 67 62 49 48 61 43 40 37 36 38 38 39
40 38 45 31 24 35 70 55 28 21 28 32 26 22 28 29 29 33 38 33 34 26 26 36 44 32 21 29 33 36 39 38 42 62 76 82 53 35 40 42 39 38 38 41 40
49 60 52 26 41 49 54 36 23 26 27 27 28 23 28 26 35 36 47 42 30 32 36 31 39 48 33 25 25 26 33 38 77 58 69 83 60 33 48 45 41 39 36 38 43
48 53 49 32 69 64 41 30 25 29 27 26 33 33 31 37 43 51 52 40 40 48 52 43 43 68 46 40 34 27 24 24 41 70 64 81 65 29 37 37 38 40 34 46 50
56 78 49 57 55 51 43 37 35 32 31 27 31 28 32 38 37 52 54 45 42 39 34 46 40 48 63 36 29 28 27 24 31 82 69 68 53 39 57 57 52 53 52 59 61
57 61 37 70 49 54 41 40 41 41 32 29 31 33 36 40 44 54 55 51 45 38 40 50 56 53 50 37 32 30 33 31 32 34 49 48 41 42 47 56 54 57 58 60 64
59 58 34 38 24 43 52 36 43 37 37 36 34 34 41 44 49 53 51 48 50 43 42 47 72 58 52 52 50 43 43 44 35 32 37 42 44 51 51 52 61 65 69 75 76
49 45 52 56 44 55 52 34 34 40 36 34 34 57 65 52 40 42 36 36 43 47 54 68 76 86 85 77 76 74 50 37 35 37 38 48 49 53 63 70 73 75 75 76 77

GFSSW_850_rhum_036.txt.gz
RH
31 32 34 33 33 30 25 23 19 16 14 14 15 20 17 18 16 18 19 24 22 18 15 12 12 12 15 18 17 15 19 20 16 18 15 11 14 22 28 37 41 42 53 52 47
33 34 35 36 34 32 27 23 19 16 16 15 20 20 22 18 18 19 22 24 20 18 14 9 9 15 22 16 15 16 20 16 12 13 11 9 13 16 36 48 58 56 56 51 44
35 35 36 36 34 32 27 23 19 17 17 18 22 22 22 20 22 18 20 15 14 15 13 13 13 19 19 16 12 12 11 9 9 8 8 11 12 13 38 54 53 58 55 51 43
37 38 38 36 34 32 28 23 20 18 18 23 21 24 20 24 36 17 16 16 16 14 16 18 20 25 14 12 10 9 8 8 9 8 8 10 9 11 14 37 39 47 51 50 43
40 40 39 36 34 31 27 23 18 18 22 22 25 24 23 25 21 15 15 15 15 15 14 16 20 16 12 9 8 10 8 8 10 9 6 6 9 12 15 29 43 48 48 46 44
40 39 37 35 32 30 25 20 19 20 23 25 26 25 25 37 22 16 14 14 14 15 15 16 15 14 13 10 8 7 8 8 10 10 10 11 12 11 16 32 45 45 40 38 39
40 38 36 34 31 27 22 20 20 24 25 26 28 23 24 19 19 14 14 13 12 15 15 13 13 14 12 11 7 8 11 11 12 11 11 12 14 13 17 31 45 43 41 38 36
38 35 33 32 28 23 21 21 24 24 26 30 26 24 21 20 20 16 12 12 12 13 13 11 12 13 10 10 11 15 17 19 14 14 13 13 19 13 14 27 39 41 40 38 40
36 33 31 28 24 23 22 24 24 27 31 29 27 24 18 23 15 14 12 15 13 9 10 10 13 14 12 18 21 19 20 20 16 15 16 15 20 15 10 14 19 21 29 35 37
33 31 29 26 23 23 23 24 29 32 30 30 32 35 19 20 14 12 11 14 15 15 13 14 15 24 24 24 26 23 18 22 20 15 14 17 19 17 15 21 39 46 52 50 46
31 29 28 24 24 23 25 32 32 33 33 16 18 28 18 14 12 12 11 14 17 16 21 18 24 24 16 18 16 13 18 23 17 14 14 19 21 22 38 43 52 53 55 56 56
31 28 26 25 24 25 30 36 54 49 26 15 20 24 19 12 15 14 15 16 17 22 20 24 23 17 14 20 22 20 26 25 20 18 15 22 23 27 35 44 48 52 53 52 53
32 31 28 25 24 29 37 50 45 43 44 18 18 19 15 17 17 16 16 18 18 20 22 28 19 12 22 27 29 34 31 27 24 22 21 24 26 33 33 40 47 51 48 45 41
33 30 25 25 30 30 30 50 39 34 36 21 17 15 16 16 16 16 15 16 19 22 22 19 16 22 28 27 26 37 27 26 26 30 29 24 38 30 34 42 43 53 51 49 46
34 29 27 31 51 34 48 49 29 41 45 18 17 14 15 18 16 16 14 17 18 16 22 22 28 30 30 25 22 29 23 26 27 34 36 38 38 35 43 49 49 51 55 53 50
40 30 30 48 54 43 42 29 29 65 42 23 19 18 16 18 18 15 16 17 18 22 22 23 22 24 25 24 22 24 29 42 40 45 55 41 45 42 48 48 50 49 50 49 46
43 37 44 50 44 39 32 25 48 70 24 24 22 19 22 23 21 19 26 34 40 31 29 28 29 25 23 31 29 32 48 64 60 74 67 46 60 56 48 40 46 50 46 45 44
38 45 48 44 41 30 23 46 56 42 29 20 24 27 27 24 24 26 30 38 33 40 36 42 45 30 26 28 30 31 46 73 58 74 58 47 64 56 46 43 42 42 42 43 43
38 41 36 33 32 29 35 71 58 35 23 24 24 31 29 25 26 33 34 36 33 34 39 46 38 28 24 24 28 30 48 34 56 64 70 57 49 40 44 42 41 48 49 55 52
33 31 29 26 24 26 65 72 45 27 25 23 28 29 33 31 30 36 37 36 32 28 33 32 44 29 24 24 28 30 28 48 65 62 61 55 57 66 53 49 43 45 45 46 45
35 32 35 25 24 28 68 63 32 26 28 28 30 27 31 32 34 41 43 40 36 32 29 35 47 36 31 31 34 38 41 43 49 64 76 82 58 45 53 50 49 48 44 46 46
46 60 53 35 30 65 56 38 26 27 27 30 30 37 30 31 42 54 49 41 40 41 34 37 48 47 34 26 27 28 36 48 75 49 75 83 62 45 50 41 41 41 50 48 50
47 69 58 34 46 60 43 35 29 28 28 28 32 35 35 40 57 55 52 48 36 47 47 40 47 65 53 46 38 30 29 38 60 70 63 76 62 37 45 58 55 58 58 58 59
53 79 59 56 59 49 43 38 40 34 32 31 32 32 38 43 52 57 54 50 36 36 38 47 50 50 64 45 37 28 28 29 47 79 68 70 53 47 62 67 63 68 65 63 61
62 59 36 59 52 57 47 41 42 40 33 31 33 33 40 46 51 63 58 51 45 38 40 53 58 53 48 45 36 33 34 35 34 38 54 48 58 67 66 67 64 65 66 64 65
59 63 39 38 26 45 60 48 47 40 36 36 36 43 42 51 50 63 57 55 53 42 46 59 71 52 44 63 60 41 42 47 44 34 41 60 73 59 61 63 66 69 70 67 64
54 54 32 70 46 59 59 43 48 42 39 45 50 62 63 53 51 48 45 42 46 49 65 70 78 74 54 83 65 68 49 38 39 46 44 53 65 66 73 75 80 80 73 65 58

GFSSW_850_rhum_039.txt.gz
RH
25 29 30 31 33 32 32 30 24 21 16 15 12 13 22 19 19 14 13 19 23 21 20 17 15 16 20 19 19 15 20 21 54 37 28 22 17 24 44 52 48 48 54 60 68
29 31 31 32 34 34 32 30 25 22 18 15 14 19 22 20 16 14 20 21 26 29 20 18 13 14 20 19 18 18 23 20 30 37 34 14 28 34 48 56 63 52 51 59 60
32 32 32 34 36 34 33 31 26 22 18 15 17 23 23 20 21 16 21 19 20 21 19 19 17 17 20 18 15 14 13 12 12 25 20 13 19 31 55 63 54 56 52 57 54
33 34 35 36 37 34 35 31 26 21 18 18 23 24 22 25 28 16 17 16 17 14 15 17 21 22 23 18 14 10 9 9 10 10 10 14 14 37 32 45 39 42 50 49 48
36 37 37 37 37 36 34 30 24 21 20 22 24 25 24 28 19 21 16 16 16 17 15 17 24 22 14 12 9 9 9 10 8 8 9 10 12 14 21 35 49 50 49 47 44
38 39 37 36 37 37 31 27 24 21 21 25 26 27 28 36 22 20 17 15 14 16 16 18 16 17 14 9 9 8 9 11 11 11 10 12 13 13 24 47 53 54 50 47 42
40 38 36 36 36 34 28 26 23 22 25 26 28 29 29 18 20 18 17 13 13 16 16 14 13 17 14 11 8 9 12 12 12 11 11 12 14 18 27 51 52 52 50 47 41
41 37 35 34 34 32 28 24 22 26 26 29 32 30 22 16 18 18 15 13 13 15 14 10 13 13 11 10 13 15 18 19 14 13 14 13 18 13 40 52 54 56 56 54 52
41 35 34 34 32 29 25 23 26 26 30 32 31 32 19 18 19 14 13 14 13 15 10 12 13 13 13 19 20 22 22 19 17 15 16 16 19 16 33 53 50 51 50 51 51
38 34 33 32 29 26 25 26 27 32 34 33 43 35 15 17 14 12 11 14 14 14 8 14 15 24 25 21 22 19 19 20 20 18 16 18 20 27 18 32 43 45 47 49 51
36 33 31 30 26 26 26 32 39 36 37 20 20 23 23 18 15 13 11 14 17 17 24 20 24 24 17 17 17 19 18 23 18 16 16 20 28 41 55 52 63 65 65 64 63
36 32 30 26 26 25 30 38 55 50 34 18 21 19 20 19 17 13 14 16 18 24 21 26 24 17 21 26 22 25 24 23 21 23 20 28 38 43 46 58 65 66 67 67 66
36 30 28 26 25 28 41 48 48 43 45 23 17 18 18 18 16 16 17 18 19 20 22 26 20 20 24 30 32 36 30 27 24 25 24 29 36 45 47 55 61 62 59 56 54
39 32 29 26 30 31 37 53 47 33 41 23 18 16 17 17 17 16 16 16 19 20 24 20 26 25 27 27 31 35 28 26 26 28 26 28 47 42 42 51 59 64 59 56 54
38 32 28 30 40 30 42 51 36 29 52 19 18 14 16 18 16 15 15 16 19 20 21 23 29 29 29 26 25 31 26 26 28 38 38 39 41 42 51 54 57 62 60 56 51
38 31 27 51 51 35 45 30 27 58 38 21 19 17 18 19 18 16 17 18 20 26 26 26 24 25 26 25 24 25 34 46 52 50 56 44 49 48 59 54 57 58 61 53 52
42 29 37 56 54 41 32 26 45 71 26 26 25 19 21 23 22 20 33 38 35 31 32 32 32 28 26 29 28 36 48 60 60 70 68 51 60 57 49 49 53 59 60 58 54
43 34 51 53 47 31 25 38 50 45 30 23 24 25 28 26 29 29 34 40 35 36 41 46 45 31 27 28 31 35 47 71 57 73 52 52 66 59 50 46 47 50 50 48 46
45 46 49 47 35 30 23 52 62 48 24 27 29 32 31 27 32 35 37 38 34 34 40 44 38 28 24 26 28 30 48 39 67 68 69 63 51 46 49 55 50 46 46 49 52
48 48 38 31 27 28 54 60 56 34 26 26 33 32 35 32 34 39 39 38 32 33 33 39 44 30 24 25 27 29 32 50 65 60 57 59 60 67 58 60 50 52 50 52 53
41 38 37 28 27 26 57 65 50 27 29 24 30 33 33 35 38 44 44 41 39 35 32 37 44 35 32 32 35 38 41 50 56 67 76 81 62 44 55 52 52 50 53 50 50
36 52 51 30 34 66 62 49 32 28 27 33 35 33 36 35 52 49 50 44 46 41 33 40 50 50 34 33 32 32 38 47 63 48 80 82 61 48 56 52 50 55 58 57 53
44 75 65 36 50 66 47 39 34 29 31 32 33 36 38 52 57 56 53 49 39 44 44 39 50 64 46 46 36 33 32 57 60 69 64 71 59 50 60 63 61 63 63 62 62
48 83 67 58 40 48 37 38 40 35 34 33 34 37 42 53 60 61 56 51 36 37 43 45 58 49 58 47 41 31 30 41 49 78 67 67 49 70 70 74 73 71 69 66 64
54 60 48 67 69 65 44 41 43 39 34 33 34 36 43 52 57 66 59 52 44 42 46 49 57 53 54 54 38 33 33 36 37 42 50 43 60 62 75 76 73 72 70 69 63
61 60 42 43 37 58 58 50 45 41 36 37 41 50 41 50 50 64 59 52 39 44 54 64 69 50 51 66 62 43 38 44 48 41 46 63 75 66 65 68 74 75 72 66 57
58 60 33 68 59 58 66 48 49 43 50 46 50 58 57 55 52 51 46 47 48 53 72 70 76 62 47 81 54 47 47 47 41 45 47 78 64 70 75 75 77 74 66 51 46

GFSSW_850_rhum_042.txt.gz
RH
21 24 25 28 29 31 31 31 31 28 24 20 16 16 14 20 20 18 13 10 22 23 22 22 17 16 20 17 20 16 20 48 53 49 40 30 44 40 44 55 55 55 70 71 81
24 26 29 31 31 32 32 31 32 29 24 19 18 17 19 21 18 13 11 15 18 24 29 22 18 18 21 20 19 20 24 25 40 38 39 32 25 33 54 58 60 56 61 73 70
26 29 32 34 33 34 34 34 33 28 24 20 20 18 23 22 20 16 20 21 21 21 21 23 19 18 21 19 17 18 19 17 28 26 23 28 28 33 56 61 54 51 66 73 64
30 32 36 36 34 37 37 35 32 27 22 22 20 24 24 25 27 20 17 17 17 18 21 18 19 24 24 20 16 13 13 13 24 33 33 18 21 50 42 33 37 40 50 63 58
34 34 39 38 35 38 38 36 31 26 24 23 24 25 26 30 18 21 19 18 17 18 18 18 24 22 18 16 12 10 10 12 18 26 21 16 16 41 25 36 44 47 56 55 50
36 38 40 37 36 39 37 35 30 27 24 24 26 27 32 37 19 22 20 17 15 16 18 17 18 19 18 11 9 9 12 13 10 10 11 13 15 18 28 45 48 50 53 52 49
39 40 42 36 36 38 37 32 28 25 24 26 28 30 33 16 19 18 19 15 14 15 17 18 18 20 17 12 9 11 14 14 14 12 14 13 14 17 40 50 47 52 54 57 54
40 41 42 34 36 38 35 29 26 24 27 28 31 35 24 16 17 18 15 13 14 14 16 15 16 17 13 11 14 16 18 17 14 13 15 13 17 14 47 52 61 58 54 52 52
42 42 39 33 37 36 31 27 26 28 29 33 35 37 21 16 19 16 13 14 15 15 16 16 16 15 13 20 21 22 22 20 17 16 16 15 18 21 60 59 62 61 59 58 53
45 41 36 35 37 31 29 28 29 30 35 38 46 41 16 18 17 14 12 13 16 15 13 14 15 24 26 21 24 20 19 19 19 17 17 19 31 54 46 56 58 57 58 57 56
44 40 34 35 32 29 30 31 39 39 39 25 22 21 25 19 18 13 13 13 18 17 24 21 25 23 18 18 17 18 18 19 20 18 20 35 49 62 62 60 67 70 68 68 64
42 38 33 33 28 29 31 37 37 48 41 22 24 23 16 20 20 14 14 16 19 24 22 28 25 19 26 22 26 24 25 24 23 25 24 44 54 57 59 69 75 78 80 78 79
40 36 33 29 28 29 32 53 51 51 52 26 15 16 18 18 18 17 17 18 20 21 26 28 21 22 28 32 33 35 29 28 27 25 29 34 40 55 58 67 71 74 73 70 67
40 34 33 31 32 30 41 52 52 49 39 25 22 18 17 18 18 17 17 17 21 24 23 24 28 26 28 30 32 32 28 27 29 27 33 30 41 48 55 65 68 69 67 68 66
42 35 35 32 35 32 38 54 46 48 46 21 19 16 17 18 17 16 16 17 20 24 21 26 28 29 31 28 26 31 31 32 34 42 38 42 43 46 57 66 68 68 67 62 55
43 36 37 40 46 32 50 39 42 57 60 23 19 18 20 20 19 17 20 20 21 30 31 30 26 27 27 30 28 30 41 49 55 53 57 48 54 52 66 60 63 63 63 56 56
44 36 36 49 49 36 42 40 48 57 29 27 24 20 23 25 25 27 36 40 31 35 38 37 34 30 28 30 30 41 47 63 62 67 68 52 59 54 47 53 58 62 59 56 50
46 39 34 55 54 44 37 34 37 40 42 23 24 26 27 27 33 34 36 41 36 34 44 47 45 31 28 29 34 40 44 71 58 78 58 53 65 58 55 50 48 50 48 48 52
49 50 46 63 53 32 32 46 43 51 29 30 29 33 34 29 34 38 39 39 35 35 40 45 39 29 26 31 29 38 49 42 72 68 70 64 54 51 60 61 57 54 52 53 52
51 58 62 55 38 36 44 45 43 48 30 27 32 34 37 33 37 41 40 40 33 35 35 41 46 31 26 27 31 28 39 53 64 55 48 60 61 69 66 67 62 59 58 52 56
61 58 51 35 36 36 52 49 51 39 34 25 34 36 35 35 41 45 44 41 39 38 34 40 44 36 32 34 38 40 44 55 62 67 74 79 62 51 62 62 63 55 52 57 58
62 59 53 36 37 66 63 52 37 30 32 35 35 31 36 40 50 48 47 43 49 44 34 42 50 49 34 31 37 35 40 45 60 49 80 81 67 55 58 53 51 58 61 63 61
50 76 68 38 57 67 49 37 37 32 34 34 38 37 43 55 56 55 54 48 41 41 43 42 50 60 46 39 36 36 40 58 59 69 69 72 53 56 63 68 69 69 67 66 66
50 91 72 57 30 48 38 37 40 37 37 35 41 40 49 58 62 63 59 50 38 41 47 42 56 48 54 38 43 35 33 50 50 76 65 65 45 64 69 76 78 72 71 69 65
49 69 59 78 76 48 33 40 44 40 36 34 39 40 48 57 60 65 59 53 42 46 51 47 55 52 58 57 42 33 35 42 42 44 47 42 59 49 71 82 78 74 72 68 61
56 56 45 53 52 57 54 51 46 42 43 39 42 52 44 54 48 66 60 51 34 50 58 63 67 49 55 66 63 48 42 43 42 41 50 49 56 64 67 69 79 78 73 66 56
62 44 34 68 72 66 70 55 49 48 53 47 47 54 49 50 53 53 48 50 49 57 72 66 74 66 64 73 50 50 48 49 50 49 52 64 55 77 80 78 78 74 69 62 49

GFSSW_850_rhum_045.txt.gz
RH
20 19 20 22 26 29 28 29 31 31 30 26 22 18 15 14 16 18 14 12 20 20 21 23 21 17 16 18 21 18 18 40 41 38 44 42 42 36 51 56 58 59 76 77 79
21 21 22 27 29 30 29 31 34 33 31 26 22 18 16 18 18 16 14 13 13 18 26 24 20 18 23 20 21 18 18 28 35 38 56 47 40 42 51 57 58 59 73 80 78
23 25 25 31 30 32 32 33 35 33 30 26 22 18 19 23 19 19 20 21 21 20 22 22 19 18 23 21 19 19 18 18 32 30 32 43 33 44 53 53 54 68 83 82 76
25 29 30 34 34 35 34 35 35 33 30 25 21 20 24 25 26 21 20 18 18 21 20 22 21 23 25 20 18 16 14 18 28 31 27 28 29 49 47 40 45 52 66 68 63
27 32 33 37 37 36 35 37 34 33 29 24 22 25 27 28 16 21 21 19 18 19 20 22 22 23 24 20 14 14 12 12 16 32 23 24 28 37 40 38 40 52 53 55 55
30 34 36 40 37 37 36 37 34 31 26 22 25 28 29 39 16 22 19 19 18 18 19 21 19 20 19 14 11 11 13 13 15 26 21 16 18 30 29 42 43 48 57 62 54
34 36 40 41 36 38 36 36 33 28 24 24 28 30 32 16 19 19 18 19 16 15 17 18 19 20 19 13 10 12 15 15 14 14 14 14 16 17 37 50 51 66 68 67 57
38 40 42 41 37 38 35 33 30 25 25 29 30 35 23 15 16 17 19 15 15 15 15 18 19 20 16 12 16 16 17 17 15 14 16 14 18 20 65 56 59 64 69 68 60
39 43 45 41 38 37 33 30 28 27 30 32 38 39 21 16 18 18 15 13 15 16 18 19 20 16 14 19 19 20 18 19 18 18 16 15 19 36 69 69 66 64 59 59 60
42 46 46 39 37 36 31 29 30 30 32 40 40 46 17 20 18 16 14 13 17 17 18 18 18 21 20 17 22 22 21 21 20 18 20 22 35 45 59 64 68 69 64 61 58
45 48 46 37 37 33 29 34 36 41 39 28 25 28 26 18 18 14 13 12 17 18 24 22 21 20 18 18 16 19 19 19 20 20 32 40 46 54 63 67 71 74 68 64 64
48 49 44 37 34 30 30 36 36 50 44 24 24 25 20 19 20 14 14 15 18 24 23 24 24 20 26 21 22 22 24 26 26 27 29 42 52 57 61 72 74 78 78 72 76
50 50 42 36 32 28 28 43 61 55 58 31 19 19 18 19 19 16 17 18 21 23 26 29 22 24 29 30 30 32 29 28 26 27 30 33 36 50 64 73 79 82 82 82 80
52 50 42 35 32 28 30 45 60 61 41 26 26 21 19 19 18 18 18 18 22 26 24 29 28 26 29 32 30 35 29 29 27 24 28 31 26 41 58 68 72 77 78 76 72
54 51 45 36 31 30 41 42 61 57 48 22 21 17 18 18 18 18 19 18 24 26 24 30 29 30 32 30 28 35 33 34 34 36 32 39 29 33 58 70 69 70 73 69 66
54 53 47 34 41 33 40 58 57 54 58 25 21 20 22 20 20 19 22 19 22 34 32 33 28 29 29 34 32 39 38 42 45 43 45 46 44 40 51 54 63 64 69 62 54
50 53 47 33 51 38 54 49 49 55 30 27 24 22 25 25 28 31 37 39 31 38 41 36 34 30 28 32 33 35 39 46 47 53 45 49 53 41 43 46 53 58 62 56 51
49 54 44 38 70 64 51 38 45 40 44 24 25 27 30 30 36 36 37 40 37 35 40 41 37 31 29 31 35 41 37 58 54 59 52 48 53 42 47 51 53 57 54 51 54
52 55 42 37 83 70 45 46 49 41 37 31 29 34 35 32 35 40 42 39 37 36 37 44 39 30 29 34 31 43 45 40 61 65 59 47 47 42 52 56 55 54 60 59 54
53 54 39 41 73 73 45 50 34 44 32 28 30 36 41 38 39 42 40 41 36 36 36 43 46 32 28 30 34 33 39 49 51 57 42 41 50 41 56 55 57 56 57 62 60
56 63 50 59 74 53 54 49 46 43 36 30 37 38 38 40 43 45 44 42 40 38 36 40 44 38 33 33 39 39 44 53 50 52 44 48 31 47 48 50 54 52 60 62 62
70 67 72 65 47 62 56 44 40 35 35 39 33 34 38 42 49 49 48 44 49 43 38 42 49 49 36 33 36 36 40 45 49 47 68 60 40 50 55 52 57 59 58 60 63
66 76 73 67 66 62 48 40 37 34 35 37 41 38 47 56 53 54 55 50 43 40 47 44 49 53 40 34 36 39 43 46 50 58 61 71 33 53 61 63 62 65 69 66 64
57 89 72 67 37 50 44 38 37 39 39 38 47 47 55 57 61 64 60 50 40 44 44 39 50 46 46 37 43 41 45 46 44 58 50 47 34 44 59 65 72 74 74 69 66
58 76 62 82 63 49 35 45 41 42 38 37 43 45 53 61 60 65 60 52 44 51 55 47 48 50 57 56 45 36 37 50 43 42 47 38 42 34 43 58 70 75 76 71 66
56 61 52 63 44 48 48 52 47 46 44 38 50 51 46 56 49 66 58 52 39 56 60 58 63 53 60 61 56 48 41 40 43 39 41 42 40 34 57 68 78 81 78 72 62
59 42 31 76 74 55 59 55 48 54 55 52 50 53 50 53 55 58 49 50 49 59 68 60 69 63 60 60 44 55 45 43 43 43 37 43 34 66 71 71 77 82 75 66 60

GFSSW_850_rhum_048.txt.gz
RH
21 19 20 19 22 23 26 29 28 29 29 29 26 22 15 13 11 15 12 13 17 12 15 20 22 20 18 15 18 16 13 24 28 28 41 38 35 33 43 46 50 56 60 71 66
21 20 21 21 23 27 29 31 31 30 31 31 25 20 15 14 16 15 17 14 13 22 25 24 18 19 14 13 16 13 14 16 18 29 38 35 35 37 36 46 46 56 83 98 78
21 20 21 24 26 29 31 32 33 32 31 29 25 18 16 21 23 22 22 20 13 16 25 25 18 16 13 13 15 12 14 14 22 29 26 35 41 31 34 29 35 42 89 91 94
23 21 23 28 31 32 32 33 34 35 30 27 23 18 19 25 21 22 21 19 21 20 24 25 20 15 11 13 12 13 12 15 26 28 30 28 28 30 34 31 41 47 77 84 85
26 22 26 30 35 35 34 32 36 35 30 25 21 20 26 40 27 20 21 19 18 20 24 24 20 14 11 10 13 13 12 20 21 29 24 29 26 25 32 41 44 63 77 76 69
28 24 28 36 38 38 35 33 36 33 27 24 21 26 30 34 16 19 19 19 21 21 25 23 19 16 18 14 12 12 12 18 16 26 21 23 26 23 32 46 56 68 63 59 55
30 28 34 38 41 39 34 34 36 31 26 22 25 30 32 31 18 21 18 20 23 20 24 24 22 21 20 12 12 12 12 12 13 20 21 16 19 17 37 46 54 53 54 55 53
30 34 37 41 42 38 35 34 33 29 24 26 30 32 40 14 15 17 19 18 15 17 23 21 22 23 21 14 13 11 12 17 14 18 14 14 15 19 45 41 44 49 54 54 53
35 39 41 44 42 37 36 33 31 27 25 30 33 40 32 17 18 19 17 16 16 18 18 20 24 20 16 12 13 13 14 13 15 14 13 12 14 24 53 39 42 50 53 53 58
40 41 45 45 40 36 35 32 31 28 30 34 38 54 22 20 21 17 14 14 20 21 22 21 20 15 12 11 14 14 12 12 12 15 12 13 22 28 49 48 46 49 51 54 56
43 44 48 45 38 37 34 34 45 45 32 33 27 33 26 21 18 15 14 18 18 18 14 19 16 14 11 11 11 13 12 12 12 15 15 15 24 28 46 49 52 51 53 56 60
45 47 50 44 37 37 34 51 38 48 38 26 30 30 19 19 22 15 14 14 14 14 19 18 16 17 16 14 14 14 15 16 18 17 19 23 29 32 41 46 49 52 56 61 71
46 50 51 44 38 35 30 30 49 58 50 33 33 26 22 21 18 14 16 18 14 17 20 15 19 21 17 18 18 19 18 20 16 20 21 22 27 35 42 51 56 57 56 61 65
47 53 50 42 38 33 28 29 48 65 39 22 22 20 18 23 17 18 18 17 19 19 18 20 21 21 19 21 20 20 21 19 19 18 18 22 17 27 38 44 48 57 58 61 64
49 54 52 41 35 36 39 36 48 66 34 17 20 20 20 18 16 18 18 19 16 19 20 24 21 21 20 23 22 25 22 20 20 20 20 22 19 24 36 42 47 53 57 63 66
53 56 54 41 32 34 42 58 72 51 36 22 18 18 18 18 18 20 21 20 23 22 20 22 24 21 23 26 23 26 26 26 25 24 27 21 26 13 25 29 43 51 58 60 62
56 57 51 33 49 42 55 67 50 43 25 23 21 18 16 20 20 19 21 21 19 27 27 24 25 23 24 26 27 25 24 25 31 30 26 35 32 17 30 31 36 47 53 56 50
59 58 48 38 56 66 59 49 47 24 23 20 19 17 19 20 23 25 25 24 25 22 23 23 30 23 24 24 22 25 22 25 26 29 28 37 32 29 33 35 37 44 49 46 48
63 60 50 33 41 80 59 55 33 27 23 21 20 21 24 24 22 25 27 23 25 25 20 26 27 24 27 25 24 31 28 30 40 49 44 24 28 30 36 37 39 44 43 44 47
65 62 62 35 40 72 58 45 28 30 24 20 22 20 25 25 23 23 27 28 28 28 30 29 32 26 26 25 28 27 27 34 34 46 29 18 23 18 37 38 36 40 40 43 49
90 67 60 45 45 74 56 38 26 35 31 22 19 26 22 29 23 22 25 32 29 30 29 26 27 32 27 26 25 34 32 32 28 34 24 21 14 27 29 33 36 36 40 44 53
79 55 67 56 59 51 48 32 30 31 39 27 22 21 24 26 30 24 27 26 39 28 29 31 31 38 28 26 27 26 26 28 30 33 43 39 20 26 34 36 36 37 42 48 58
65 75 100 72 64 57 36 30 33 30 30 32 29 26 31 31 36 36 36 45 41 32 32 31 33 41 36 30 31 30 29 27 31 38 37 57 18 28 38 40 41 41 51 58 60
56 74 98 83 45 39 37 32 30 41 34 34 35 36 38 39 41 44 44 43 43 38 38 30 34 32 35 26 27 33 32 28 24 35 22 26 13 24 32 36 41 45 52 57 60
61 45 51 75 52 37 32 27 28 38 36 36 36 30 32 45 42 45 42 41 42 48 44 35 36 33 35 34 32 28 28 31 28 23 32 17 16 11 19 28 36 47 55 57 58
59 53 61 50 41 35 41 32 27 39 35 34 32 35 35 36 31 41 39 37 36 44 42 41 43 42 45 43 39 36 28 26 29 26 26 22 23 16 21 26 41 53 56 58 58
66 46 43 65 48 36 35 29 29 35 51 43 33 38 43 44 48 46 44 36 33 41 46 43 50 47 42 42 39 62 36 27 24 26 26 28 22 27 34 36 43 52 57 57 58

GFSSW_850_rhum_051.txt.gz
RH
21 22 21 21 21 24 21 20 23 27 29 27 26 26 21 14 11 19 29 23 22 16 23 23 21 17 13 12 10 11 12 12 31 41 26 34 35 54 38 31 38 38 41 44 92
22 22 22 22 20 26 25 24 26 27 30 28 27 25 18 14 11 28 20 19 14 21 14 19 16 13 11 10 10 9 11 16 18 38 67 37 28 30 29 31 33 44 69 88 92
22 22 22 23 22 27 29 27 28 28 33 30 28 23 17 16 42 20 22 22 11 21 21 18 13 11 10 9 10 9 12 14 14 29 27 23 30 34 31 25 28 32 71 81 72
23 23 23 24 24 29 34 30 28 30 32 29 26 20 17 21 26 22 20 19 16 16 24 19 14 11 10 9 9 12 11 10 20 37 19 23 26 28 31 48 23 48 56 67 60
24 24 24 26 25 32 36 31 28 30 32 28 25 22 21 43 26 25 21 19 18 19 22 18 16 12 10 8 10 11 13 21 38 18 21 23 21 43 25 24 27 46 49 55 53
26 24 25 30 31 34 38 31 29 32 31 28 23 23 45 31 19 23 23 21 26 25 22 18 15 12 12 10 10 12 17 21 18 21 21 22 23 23 26 27 40 48 47 47 45
27 26 29 30 34 37 38 32 30 32 28 26 24 28 49 29 21 27 21 25 25 24 21 19 17 16 17 15 11 12 20 17 15 20 19 20 20 20 27 30 36 38 38 38 35
27 26 32 34 38 39 37 33 31 30 27 24 28 42 39 22 22 23 22 22 23 25 22 21 21 21 21 13 13 16 15 18 13 14 18 16 18 17 28 30 31 32 34 34 34
26 27 34 37 42 40 35 34 30 29 25 28 40 55 29 22 19 18 18 17 20 24 24 22 23 21 19 14 14 12 18 16 14 13 13 15 15 18 25 27 31 32 34 36 35
27 29 40 40 44 40 34 33 28 27 26 33 55 52 30 18 18 19 16 15 18 23 23 22 22 17 15 14 17 13 13 13 14 14 11 11 14 22 26 22 29 33 35 37 41
29 32 42 44 46 38 36 30 44 58 54 29 25 22 21 21 19 16 14 15 16 19 22 18 19 19 15 11 10 9 9 10 9 8 9 10 15 17 24 25 31 34 38 40 42
33 35 46 48 46 38 36 47 37 57 43 29 24 25 25 23 20 15 14 14 14 22 16 17 22 16 11 9 10 11 12 11 10 10 13 12 16 19 30 30 30 32 36 40 47
36 39 47 51 48 38 33 44 54 60 45 24 21 22 21 20 16 12 14 13 13 14 18 20 20 15 12 12 12 12 14 16 14 14 12 14 18 23 24 27 31 32 35 41 50
37 43 50 54 46 53 51 38 52 59 44 22 20 18 18 20 15 13 14 13 13 14 14 30 24 13 13 12 13 17 15 13 14 17 18 14 19 23 26 31 34 38 40 44 49
41 47 53 57 86 51 58 49 54 72 52 15 12 15 14 15 13 13 16 13 14 14 17 17 16 14 14 16 16 23 16 15 13 14 21 16 14 25 26 30 33 38 42 45 50
41 54 57 58 45 53 64 77 75 53 46 17 14 16 16 15 13 14 13 14 17 15 15 26 17 15 18 18 17 18 18 18 16 16 23 14 16 17 23 20 27 33 39 45 50
42 59 58 78 55 42 58 79 50 45 17 16 16 15 16 15 14 13 15 15 15 18 20 18 17 19 18 19 18 17 19 30 30 24 25 20 21 14 21 21 21 33 40 47 51
47 62 58 72 72 59 78 56 47 22 21 14 14 15 17 14 14 14 14 14 12 14 16 20 28 19 17 18 19 19 18 24 28 24 19 23 17 19 24 24 27 34 40 47 46
56 66 68 54 59 77 62 56 40 22 15 17 16 17 16 15 15 16 17 15 13 14 20 20 21 18 19 18 17 21 22 20 24 30 34 16 17 27 25 26 29 34 39 44 40
65 89 78 72 46 93 61 47 28 18 17 16 20 16 18 18 19 18 17 14 16 19 18 17 23 19 21 20 21 21 20 26 24 38 29 14 14 18 26 27 28 31 38 38 38
82 73 52 82 52 71 59 39 24 20 24 20 18 17 16 17 18 17 16 20 18 22 23 15 19 26 22 22 16 25 23 21 22 25 31 19 14 16 17 22 25 28 34 35 38
80 63 92 69 51 54 50 31 23 18 28 26 21 16 17 17 20 18 16 16 21 20 21 19 20 23 24 18 19 20 19 21 32 26 26 33 21 16 18 20 23 25 30 33 38
76 70 98 76 53 62 39 31 23 21 23 26 21 16 17 19 24 20 18 37 28 26 21 24 21 27 28 24 23 24 20 19 20 28 31 46 23 18 22 22 22 23 27 33 39
61 77 100 98 42 45 43 35 30 24 24 24 20 17 22 20 19 25 25 35 36 27 33 30 21 24 31 23 20 29 22 20 22 37 28 18 15 16 19 19 20 24 28 36 48
62 44 63 68 46 52 36 31 29 24 28 28 26 24 25 26 25 28 28 37 37 39 30 30 33 24 22 24 24 22 21 21 24 22 28 20 14 9 11 16 18 22 28 40 47
65 38 45 37 38 50 48 37 26 20 24 31 28 20 21 26 27 27 28 32 32 37 34 30 34 34 39 28 29 29 23 21 19 19 16 14 15 11 12 14 17 22 30 39 44
76 46 39 44 46 44 41 32 23 19 37 32 24 19 26 28 35 34 27 26 26 35 38 37 37 43 39 33 30 54 32 22 18 17 18 24 17 17 19 20 19 24 33 38 44

GFSSW_850_rhum_054.txt.gz
RH
20 20 20 21 21 21 21 21 22 23 28 27 25 23 22 19 14 15 15 20 24 19 15 22 21 18 16 13 10 8 10 14 13 25 44 55 75 70 57 45 38 46 43 53 78
24 22 21 21 21 21 22 22 25 23 27 29 27 24 19 15 10 10 17 20 17 16 18 22 17 15 13 10 10 9 12 12 15 32 47 61 64 66 57 69 55 68 54 77 86
30 24 22 21 22 22 22 23 30 25 26 30 28 23 19 15 30 25 20 21 17 14 16 18 15 12 10 9 9 9 12 11 36 39 44 53 66 65 26 37 23 57 76 86 94
29 28 23 23 23 22 23 26 31 26 26 31 29 23 17 16 34 24 18 18 20 16 19 22 16 12 10 10 9 10 9 15 37 41 39 42 50 31 28 28 36 60 66 66 75
28 29 25 25 24 24 25 30 32 27 28 31 29 21 16 50 33 24 20 18 18 17 22 17 15 11 11 9 8 10 11 29 32 28 28 22 36 34 38 28 44 55 52 54 62
27 31 26 25 24 25 29 33 33 29 29 29 27 20 26 41 19 22 26 23 26 21 21 18 14 13 11 10 9 12 14 27 27 30 33 29 40 37 36 37 36 38 47 48 53
31 28 27 25 25 27 33 34 31 30 28 27 24 24 50 31 21 20 24 24 22 22 21 18 15 15 14 15 11 14 20 19 18 28 22 29 34 31 28 36 34 33 36 34 37
41 27 27 26 29 31 35 33 32 30 26 24 23 29 47 22 20 20 20 20 20 21 21 20 20 18 21 17 11 16 19 21 12 14 19 25 35 23 28 32 32 32 32 33 34
50 30 26 27 30 35 37 31 31 27 24 22 29 56 38 23 21 18 18 17 17 21 22 20 21 21 19 19 21 18 30 21 17 11 17 21 23 22 26 26 28 30 31 30 29
62 34 26 28 35 39 38 30 28 22 29 24 36 46 35 21 15 15 16 16 18 22 23 22 22 21 17 19 26 21 20 17 16 12 14 18 16 18 23 27 29 29 31 32 30
67 42 27 31 39 44 36 34 57 66 48 31 26 24 18 17 19 17 17 14 15 18 20 19 22 24 21 18 14 14 15 16 15 10 12 11 15 18 18 22 30 29 30 33 34
68 48 28 36 42 46 38 56 38 52 49 39 27 24 21 22 19 15 14 14 14 19 23 22 30 18 17 16 15 11 13 10 9 8 10 10 14 13 17 17 24 28 31 35 38
70 52 30 41 46 45 35 35 43 52 47 30 30 16 17 20 18 14 13 13 17 25 18 37 47 31 21 12 12 15 23 24 14 10 10 13 13 18 18 19 22 26 32 37 43
72 58 33 48 48 49 56 44 38 52 52 24 22 16 18 18 17 14 11 12 13 25 26 34 25 28 21 14 13 28 21 22 17 21 17 20 32 34 21 24 25 29 30 34 41
74 62 37 53 70 61 55 39 51 67 68 16 18 14 17 16 13 12 13 12 15 13 14 27 27 25 16 14 17 30 19 23 13 13 25 30 34 35 25 25 28 28 32 35 40
77 65 43 55 53 47 65 73 55 71 50 17 12 14 14 14 13 11 12 13 13 13 14 18 23 23 20 15 14 20 25 19 16 19 42 32 35 29 28 24 27 29 35 39 46
79 68 42 74 68 49 55 89 66 59 16 18 14 15 16 16 14 12 14 14 17 21 20 21 18 14 16 16 15 18 21 33 76 66 35 13 26 30 34 36 32 30 35 41 44
82 74 43 55 73 86 83 79 60 26 24 11 13 15 18 15 14 13 13 15 13 14 14 24 29 17 15 16 43 35 17 53 51 68 34 29 21 24 20 20 24 29 34 42 46
88 79 56 49 61 87 85 85 48 25 16 17 13 16 17 15 14 14 14 14 12 13 20 34 28 30 15 13 26 21 23 21 23 23 40 22 13 27 22 22 24 31 36 43 46
99 92 60 49 61 94 90 68 40 25 15 14 18 15 18 16 16 16 15 13 12 10 24 39 57 35 18 17 16 18 15 29 24 40 41 18 16 28 29 25 25 31 36 42 44
100 72 50 64 74 82 77 58 43 23 18 20 17 16 15 15 15 17 15 12 11 16 17 25 55 26 20 21 15 23 24 19 16 28 45 51 25 23 21 22 26 27 33 39 40
86 58 45 73 75 51 61 44 33 28 18 22 19 16 15 15 17 16 16 13 15 15 21 16 21 28 24 16 14 17 20 19 46 30 33 44 33 15 17 21 21 21 29 35 36
74 62 78 63 61 53 43 41 34 27 20 23 26 18 16 17 19 17 16 28 20 18 21 21 27 38 25 21 20 22 17 16 20 31 38 71 35 17 16 18 19 19 26 30 34
61 77 99 92 47 38 46 43 38 27 20 19 21 17 17 19 17 21 19 31 29 24 29 30 24 25 36 22 22 25 22 17 20 59 42 38 23 16 19 19 17 19 19 28 31
62 49 63 93 75 45 42 37 35 31 22 20 22 20 19 25 20 21 19 38 33 36 29 28 29 21 18 17 19 24 22 19 20 22 36 31 20 13 12 18 17 17 21 25 33
61 44 60 53 55 51 44 46 35 28 24 27 28 21 19 23 21 23 23 34 33 36 32 29 38 34 38 27 24 29 23 21 20 20 17 19 18 12 13 14 15 16 20 23 34
68 51 53 54 55 48 49 46 37 29 23 20 24 25 26 23 24 30 23 25 23 36 38 34 45 54 57 34 34 53 34 25 20 17 19 24 20 15 16 17 18 19 17 25 32

GFSSW_850_rhum_057.txt.gz
RH
27 26 21 20 20 20 21 22 20 20 20 23 25 24 21 20 16 10 5 11 19 24 16 13 25 24 18 17 14 13 17 17 16 38 66 62 62 56 55 51 55 74 71 65 86
23 28 27 22 21 21 21 22 20 22 23 23 25 25 21 18 10 16 22 16 14 20 17 15 21 21 19 16 14 13 20 17 33 44 58 58 60 58 59 46 69 56 73 76 74
27 23 29 25 22 22 22 21 22 23 25 23 26 24 20 16 31 24 18 18 18 22 14 15 18 18 17 13 11 12 17 27 42 42 51 58 58 64 62 60 56 50 74 68 75
36 23 28 27 24 23 23 22 24 26 25 25 27 23 19 14 40 24 22 18 20 16 18 18 21 22 17 14 10 14 23 39 44 43 49 56 38 52 55 46 44 52 52 70 75
46 28 26 28 25 23 22 22 26 28 26 27 26 23 17 32 22 21 23 18 18 16 18 20 22 16 16 13 12 12 33 34 34 35 39 37 39 34 40 54 63 65 72 70 64
52 36 23 28 25 24 23 24 29 28 27 28 25 23 21 59 20 24 18 19 25 21 18 20 19 16 14 15 17 16 28 32 27 29 34 29 32 35 52 38 63 68 67 68 74
54 48 26 25 24 23 23 27 31 27 28 27 24 24 23 8 20 22 26 20 23 22 22 21 19 17 19 20 14 19 24 30 31 29 31 34 45 44 40 47 60 56 54 60 73
63 54 36 24 23 24 24 29 31 26 28 25 23 29 22 18 18 20 22 23 23 23 22 22 20 19 19 20 17 21 22 27 29 26 31 28 39 38 35 36 42 41 50 62 68
79 55 45 25 22 24 26 31 28 26 26 24 24 63 49 28 23 16 18 19 19 20 22 21 19 21 21 27 25 23 32 26 26 29 31 32 32 33 32 34 36 34 37 46 49
91 60 53 29 23 25 28 31 25 27 27 30 28 54 30 16 17 14 16 17 18 22 22 22 23 28 25 23 33 28 29 25 25 40 32 31 30 35 31 31 33 31 31 32 32
99 70 58 36 24 29 31 29 50 60 48 33 27 16 19 22 19 17 16 16 14 21 29 23 29 30 25 24 22 21 22 24 20 17 24 25 30 32 31 35 36 37 31 29 32
99 86 61 40 25 32 39 36 46 51 60 50 47 44 26 24 22 18 17 18 20 31 30 29 34 25 24 21 22 23 23 27 18 15 16 21 22 24 42 40 23 30 40 32 41
94 96 66 45 29 33 40 30 25 47 63 45 32 39 26 19 21 20 17 15 25 28 36 36 34 30 31 34 34 25 29 22 24 22 11 13 23 29 24 42 33 28 38 33 43
92 96 68 44 34 59 46 40 27 47 85 43 29 32 27 16 21 18 16 13 23 31 31 35 29 27 32 35 27 32 24 26 26 30 29 24 50 33 30 26 45 43 42 41 48
90 100 72 44 52 72 68 51 45 57 93 31 28 19 15 18 17 16 15 15 20 25 36 33 32 34 34 30 24 31 24 27 28 30 31 32 49 39 29 32 32 34 35 42 46
89 100 79 45 36 52 61 68 60 90 90 26 20 18 21 19 18 15 13 12 12 17 21 29 21 26 33 22 21 23 25 30 43 40 47 32 41 43 36 31 34 32 33 38 48
89 100 77 52 31 73 57 72 93 99 27 23 20 19 22 21 20 17 16 19 23 25 29 23 26 20 23 30 22 28 32 57 67 74 62 31 40 38 31 41 36 40 36 45 50
89 100 80 56 56 87 55 90 99 43 41 17 18 20 24 20 21 19 17 24 21 21 26 38 38 31 21 24 32 32 40 60 62 78 57 43 47 38 30 29 29 36 36 44 52
99 100 91 60 60 86 96 92 71 45 26 26 17 25 25 21 22 22 22 22 19 19 28 38 38 34 27 24 23 45 62 40 43 45 50 42 37 34 29 34 44 40 41 46 49
100 100 89 62 43 86 98 72 60 35 30 30 28 22 28 24 24 24 24 18 19 17 24 46 49 48 40 29 23 29 37 42 49 38 42 37 31 49 37 35 42 43 46 46 48
99 99 84 71 55 92 88 71 57 41 34 34 26 23 22 25 23 23 23 18 16 26 32 45 48 49 41 40 36 28 29 26 31 51 55 66 42 35 38 37 40 44 42 45 48
100 94 69 59 94 80 82 59 50 44 38 40 24 26 25 23 24 25 25 22 16 21 27 38 56 68 51 37 23 21 25 40 59 38 50 62 50 19 28 32 28 36 39 43 46
98 77 67 50 69 81 60 58 50 45 42 37 30 27 27 26 28 26 25 33 21 22 27 32 39 49 39 31 25 25 24 21 30 56 46 69 53 22 23 28 25 24 36 41 44
92 88 94 94 40 56 61 50 53 41 45 40 31 30 33 30 24 30 44 34 30 35 29 30 35 44 53 35 28 30 26 25 29 71 50 53 39 30 25 24 23 20 29 37 40
97 62 79 95 89 59 50 45 51 52 41 35 34 34 35 32 26 28 43 45 34 35 31 37 40 27 26 28 28 26 28 30 30 35 50 41 36 29 22 29 20 19 19 31 36
89 62 73 76 70 77 56 48 45 43 42 40 37 34 32 33 31 30 40 45 44 41 36 37 49 35 42 38 37 36 30 30 30 28 26 26 28 21 20 16 18 20 22 26 39
96 57 56 74 77 81 71 46 43 40 36 32 30 39 37 32 26 29 28 30 38 52 48 51 53 68 60 44 42 54 36 32 32 28 25 31 29 24 24 25 21 21 21 25 39

GFSSW_850_rhum_060.txt.gz
RH
22 21 23 26 22 21 19 20 21 20 18 20 21 21 21 18 15 8 13 14 15 19 16 14 18 25 26 19 17 17 22 24 18 35 62 62 67 65 59 62 37 55 71 73 100
33 22 21 25 25 22 21 21 21 19 20 22 22 22 22 17 13 24 19 20 14 16 14 16 15 21 23 21 17 15 22 18 28 53 62 58 61 62 65 60 67 83 84 71 87
40 32 22 23 24 23 22 21 21 20 23 22 22 23 21 16 22 24 20 18 20 13 14 15 16 19 20 18 18 15 18 32 44 46 46 56 63 59 60 57 58 61 86 87 78
46 41 30 21 24 24 22 21 21 22 26 22 24 23 20 14 35 21 22 20 17 15 16 18 21 24 24 19 14 14 18 31 48 46 53 59 54 64 59 51 51 49 62 81 91
65 47 41 22 23 24 23 21 21 25 28 24 26 23 19 18 7 17 24 21 19 18 12 17 20 22 21 17 16 19 41 38 38 36 38 42 40 47 56 69 50 63 79 87 74
81 62 48 32 21 24 22 21 22 28 27 26 26 24 21 49 19 23 28 25 23 24 18 16 19 21 21 22 22 28 34 37 36 40 35 36 41 42 73 46 54 64 80 86 67
94 79 54 42 24 22 21 20 22 30 27 27 26 23 20 9 7 22 25 26 24 22 22 22 22 23 20 25 22 30 40 34 37 32 30 35 35 45 56 59 58 72 75 68 58
88 91 72 48 32 21 21 20 24 30 27 27 26 25 20 16 16 19 24 25 24 26 24 23 21 21 19 20 19 22 30 36 33 28 28 32 43 35 43 61 68 69 68 73 68
90 93 84 55 41 22 20 21 26 27 26 26 25 46 32 25 15 17 23 20 20 20 24 22 20 21 21 29 28 26 31 34 38 29 27 31 35 39 52 59 64 75 73 67 60
77 97 96 65 49 24 19 22 26 32 43 32 34 41 20 18 24 14 17 18 18 22 22 22 24 30 28 31 39 28 29 28 34 34 36 36 36 40 51 50 57 77 74 59 53
87 74 98 78 56 28 20 27 40 59 55 46 25 11 17 22 22 19 16 17 18 23 31 25 30 31 26 24 25 27 28 32 28 27 37 37 31 37 39 43 48 67 78 68 49
83 81 100 93 61 31 25 31 45 48 56 36 33 44 31 37 36 20 18 18 21 31 33 36 40 26 27 30 34 35 37 34 24 23 36 29 31 37 45 42 38 42 45 53 58
59 82 99 97 65 31 28 36 52 39 58 38 32 31 26 28 33 20 20 19 28 33 30 41 36 28 30 36 36 37 40 29 28 23 25 24 30 31 34 39 37 37 34 36 37
36 85 97 96 67 30 53 70 46 45 78 54 47 32 29 21 18 18 18 19 25 30 34 36 31 30 33 32 33 43 30 26 24 26 25 24 41 36 32 45 46 36 41 36 36
29 90 96 94 46 54 71 76 52 60 50 32 33 26 24 16 19 18 16 18 27 33 34 34 36 34 31 32 29 38 27 26 27 37 35 34 36 32 32 38 40 42 38 41 43
38 92 100 95 69 32 64 68 58 81 72 42 30 29 22 20 20 17 16 16 15 31 31 26 25 27 30 29 28 25 27 44 49 47 49 37 38 37 35 28 32 38 38 42 48
70 96 100 93 75 31 56 68 87 86 40 33 28 22 26 26 24 21 18 18 22 27 31 26 28 22 26 26 27 29 41 58 57 66 56 38 44 37 31 31 31 37 43 46 51
90 100 100 95 76 59 64 90 92 57 52 30 22 24 28 26 24 22 21 23 21 23 33 38 37 27 22 26 28 40 38 59 49 61 48 40 47 36 33 28 31 31 35 42 51
97 98 100 76 76 72 88 87 76 62 33 29 22 30 30 26 23 25 27 27 22 23 29 41 40 44 30 30 26 36 47 52 56 51 53 43 35 36 31 34 35 41 49 62 59
84 100 97 92 84 66 98 71 65 47 39 38 34 28 35 29 30 29 28 23 20 21 21 36 47 43 39 30 28 29 38 52 63 40 40 39 38 49 37 40 50 52 54 58 62
89 95 90 99 94 75 87 70 56 42 44 48 40 30 29 31 28 30 26 22 21 23 28 43 39 38 40 37 32 34 34 36 42 54 54 63 45 35 40 42 50 51 44 52 56
100 96 77 96 88 84 80 61 50 46 44 50 46 45 30 31 30 31 29 23 22 30 34 39 51 56 42 34 35 32 34 39 61 37 56 63 47 26 37 38 40 41 45 47 48
94 86 85 85 91 77 65 64 55 47 48 46 46 40 28 26 27 33 29 32 24 27 37 43 48 60 52 39 32 37 28 30 47 57 46 68 52 27 27 35 33 40 42 45 46
95 93 98 99 74 58 65 67 72 50 50 49 50 48 42 32 28 29 38 36 36 34 30 31 45 44 61 43 32 32 30 28 37 68 48 58 38 30 28 29 32 30 35 40 44
99 71 68 94 89 58 56 60 64 60 44 42 48 48 52 42 30 33 46 41 38 33 33 37 39 35 34 31 32 31 30 29 33 38 47 39 45 31 28 28 25 25 23 38 50
99 83 73 81 68 71 56 58 58 48 42 38 47 47 44 40 34 36 48 45 41 40 36 42 39 35 37 40 37 35 30 34 33 29 32 32 34 29 23 24 24 22 24 35 45
91 77 70 61 75 82 64 52 47 39 40 32 42 47 48 43 28 23 26 32 38 47 49 51 57 66 56 47 43 61 40 35 31 32 31 34 29 28 32 30 27 22 22 30 41

GFSSW_850_rhum_063.txt.gz
RH
32 29 21 20 21 22 22 20 20 20 19 19 20 19 18 17 12 17 22 22 14 11 16 18 16 24 25 23 19 18 26 27 21 28 37 64 67 72 66 63 62 71 72 83 93
40 34 32 22 20 24 23 22 21 21 19 20 21 20 18 16 15 21 19 19 18 17 18 18 16 21 22 24 20 19 26 20 18 42 54 61 66 64 61 60 75 98 90 100 98
62 44 38 31 21 23 24 23 22 20 20 22 22 21 18 16 18 23 21 19 20 16 15 19 16 17 21 21 20 18 22 18 43 44 52 58 63 58 63 62 61 97 98 97 99
76 65 46 39 29 22 26 24 22 21 21 23 23 22 18 16 29 23 24 20 18 16 17 20 22 24 26 25 16 16 15 25 37 49 49 59 62 64 58 58 56 69 85 95 99
86 81 70 47 40 25 24 24 23 22 24 25 25 23 19 21 10 13 22 22 20 19 16 18 21 23 23 21 21 17 41 44 45 46 49 45 50 49 61 75 59 85 85 93 91
92 92 84 70 46 36 22 23 22 23 29 27 27 25 22 36 13 21 24 24 25 24 18 16 20 22 23 24 26 34 40 39 42 42 44 41 48 46 72 83 89 78 78 83 83
63 89 90 82 64 45 27 21 21 24 32 30 29 25 22 11 11 24 23 22 25 27 25 23 23 22 22 25 25 34 41 42 41 38 32 36 45 51 60 76 70 68 50 82 74
64 81 83 87 78 54 38 20 20 23 33 30 30 25 18 8 10 19 20 20 26 26 24 25 25 22 23 22 22 28 36 46 35 31 31 31 43 49 52 73 82 74 49 93 72
45 55 79 83 85 65 46 21 19 21 30 31 29 28 20 20 20 16 20 19 22 21 20 23 22 22 24 30 31 29 35 39 40 31 30 32 39 53 54 72 82 88 79 76 92
15 34 84 79 92 77 52 22 18 25 38 48 40 40 11 20 23 22 17 22 20 22 24 23 25 32 32 34 41 34 32 31 36 29 35 34 34 63 56 70 77 90 86 78 68
8 30 82 72 95 88 54 20 32 58 62 41 25 17 12 19 22 21 20 17 20 23 31 26 33 34 28 29 28 32 35 35 30 28 38 42 37 44 64 64 72 84 88 78 56
6 26 75 69 99 94 61 25 41 63 57 33 29 39 33 38 39 22 20 19 25 31 33 32 35 29 28 31 32 34 39 40 35 29 34 40 38 33 56 56 64 71 84 71 62
6 19 79 76 98 93 61 35 73 65 58 41 34 37 26 27 36 25 21 20 25 33 36 37 32 29 31 35 34 35 38 41 39 26 28 30 34 39 53 49 54 67 57 60 45
9 13 85 83 90 80 51 74 62 45 64 46 57 39 31 27 28 21 20 20 27 32 36 36 32 32 34 35 34 40 32 37 34 26 36 24 41 39 48 50 50 56 62 59 50
52 19 91 90 91 52 67 68 57 65 46 24 44 33 29 21 18 20 19 20 30 33 34 30 37 36 37 32 31 36 31 30 29 35 35 35 36 33 36 52 48 46 51 50 51
96 40 92 98 100 65 67 59 63 84 68 36 36 38 30 21 19 20 20 18 20 32 32 29 27 32 30 27 30 28 32 40 47 47 46 36 39 40 42 35 40 40 42 44 44
99 58 94 97 98 81 64 60 92 90 35 40 39 30 34 29 21 21 20 24 28 32 33 28 29 24 27 30 28 32 40 52 54 62 50 40 44 42 30 29 33 38 39 42 43
98 88 89 95 100 84 55 92 97 60 54 41 26 29 27 28 26 28 23 26 21 25 36 37 38 27 23 26 29 42 38 57 44 55 46 41 49 38 30 31 33 25 34 42 53
98 97 97 95 100 91 89 94 75 60 44 28 26 30 30 28 27 24 28 27 24 25 30 42 37 40 37 30 28 40 46 43 56 56 61 48 37 31 36 42 43 58 44 50 52
99 90 89 90 100 100 97 79 66 53 47 49 36 31 37 34 31 30 33 25 22 25 23 34 35 39 38 32 30 31 42 54 66 47 43 41 40 40 34 37 50 55 62 51 54
99 94 78 86 100 98 92 73 60 46 43 57 55 43 34 34 33 35 30 24 25 25 26 40 36 34 39 39 37 41 42 40 49 54 54 61 47 37 38 38 44 53 48 50 58
99 94 77 78 98 90 80 63 52 46 41 50 54 55 47 33 35 35 33 26 20 33 32 39 45 47 38 32 33 31 36 42 60 42 61 63 51 27 38 38 39 36 41 51 54
91 82 83 84 91 90 68 62 56 46 48 52 56 50 45 34 30 36 35 26 28 35 41 44 49 54 42 35 39 43 38 41 51 60 58 71 53 29 30 32 29 38 39 42 52
88 92 98 98 69 65 71 72 71 54 54 51 56 50 48 42 31 33 37 37 36 32 29 32 49 43 54 39 34 36 32 33 43 70 50 59 39 30 31 31 30 29 32 39 44
91 72 77 90 88 77 61 63 72 66 55 51 55 58 55 54 36 36 45 42 39 39 38 39 45 40 39 33 31 30 32 36 41 41 48 41 47 36 33 30 26 20 28 38 50
90 78 72 78 70 78 64 63 67 62 56 58 54 52 45 56 44 40 48 46 43 40 39 44 44 34 41 40 39 38 36 34 37 33 43 40 40 34 27 25 26 26 28 28 38
96 74 68 69 74 75 66 60 58 51 54 45 45 50 48 52 42 33 30 35 37 46 49 48 61 62 49 48 46 61 49 39 35 34 34 39 36 29 31 36 40 31 27 32 41

GFSSW_850_rhum_069.txt.gz
RH
77 71 62 47 37 34 28 21 22 22 20 20 19 17 17 14 12 19 22 21 14 11 10 18 18 26 26 15 19 18 22 23 21 20 18 62 61 70 66 67 74 82 84 86 99
99 87 80 72 61 46 37 29 21 22 20 20 19 17 18 15 12 21 23 21 22 18 20 20 17 23 25 25 21 20 23 20 17 16 35 58 65 63 63 68 86 93 89 99 97
73 98 90 87 80 72 54 41 29 20 22 21 19 18 19 16 12 24 25 24 22 20 19 17 17 20 21 24 23 21 21 19 16 20 52 55 61 63 59 56 69 81 97 100 99
64 58 70 88 92 85 77 56 41 25 21 22 21 18 20 16 16 28 25 22 21 18 19 19 19 23 26 25 22 22 19 19 23 46 51 47 62 62 62 66 71 88 99 99 100
68 72 60 71 64 86 84 75 54 38 23 21 22 21 23 21 13 12 18 23 21 19 20 23 24 24 25 25 24 21 27 47 36 50 51 53 56 59 86 88 75 98 95 96 96
31 55 65 63 71 54 76 79 70 51 32 21 21 24 33 34 12 9 22 25 26 24 19 18 20 23 24 26 27 34 43 49 54 52 50 41 51 52 83 98 95 92 92 100 99
12 30 44 61 58 49 63 70 68 65 44 22 20 24 32 15 12 13 28 27 26 26 28 24 24 25 25 27 34 38 39 37 44 46 40 42 44 57 82 98 95 99 99 100 98
6 9 31 36 47 43 49 58 56 66 54 24 20 27 27 14 11 16 25 26 24 24 26 27 27 26 25 26 27 34 34 37 33 39 37 37 41 63 79 88 82 86 97 80 76
5 5 8 33 30 38 38 46 52 56 53 22 28 33 26 16 14 10 18 22 21 24 23 26 26 26 28 28 29 29 32 36 30 33 32 34 43 54 84 80 68 68 57 90 82
18 6 5 10 39 35 40 40 54 48 32 41 51 48 22 19 26 26 21 18 21 24 26 27 27 30 31 27 34 33 33 33 32 27 32 31 39 54 77 81 67 77 79 86 80
36 17 8 7 20 41 27 44 38 43 64 44 40 35 23 20 22 24 23 20 22 23 31 30 32 35 30 30 26 29 32 34 31 26 29 32 37 54 67 80 78 77 75 66 79
86 56 37 9 20 45 72 78 78 66 81 40 29 38 34 40 44 30 27 22 23 27 34 32 36 28 27 30 32 34 34 32 30 29 33 34 32 40 57 68 72 71 78 72 64
98 100 72 32 16 60 51 62 86 71 88 69 40 33 24 26 34 26 28 21 26 33 36 37 30 32 33 36 36 35 36 36 33 32 32 35 30 37 46 58 69 73 70 75 66
99 100 97 59 31 58 52 73 68 68 74 44 47 41 34 24 36 20 26 21 29 31 37 34 32 34 37 36 35 39 33 33 37 33 30 28 30 28 36 49 57 65 74 65 69
98 98 99 88 98 79 68 76 71 76 40 24 54 46 42 31 23 30 24 24 34 33 33 30 40 39 39 37 34 34 34 35 34 34 34 35 30 24 39 41 43 50 61 65 50
97 99 99 92 90 58 76 76 79 87 74 34 49 51 52 42 24 31 25 22 25 36 36 30 32 34 32 33 32 34 36 36 40 41 43 37 33 28 26 31 35 37 48 58 49
92 95 98 97 68 62 90 90 93 89 43 34 52 46 46 40 26 29 30 32 34 39 42 32 32 29 29 31 32 33 37 41 45 47 42 40 41 31 30 28 28 29 43 40 42
88 94 94 96 93 86 78 92 98 62 56 42 36 46 40 32 28 28 33 33 28 30 38 35 34 31 30 28 30 36 35 47 39 44 37 42 41 25 29 29 32 34 38 35 39
95 87 93 94 83 98 100 95 67 62 49 43 31 48 46 31 28 30 37 32 27 29 31 42 33 33 35 33 30 41 41 37 53 56 57 43 33 22 27 31 36 39 48 40 38
89 96 89 95 85 99 98 73 69 52 49 52 55 38 51 38 33 33 37 31 28 28 26 35 34 39 39 35 39 35 39 46 50 50 48 37 36 29 24 24 33 37 42 40 38
94 99 82 89 92 99 92 77 58 52 49 53 64 62 39 39 37 39 36 27 26 30 27 35 35 34 39 40 37 44 43 44 41 46 46 47 34 31 27 27 32 34 34 32 35
100 96 80 79 96 86 80 63 53 49 51 54 52 61 59 39 43 41 36 31 24 29 30 37 44 45 37 33 33 34 38 41 54 46 54 51 42 26 29 30 32 36 34 29 26
99 98 80 80 92 82 68 64 56 55 52 56 56 55 54 50 37 42 39 28 27 33 37 43 42 40 33 34 39 40 39 42 49 55 54 61 42 28 28 26 27 32 29 32 33
98 98 100 99 71 65 73 67 68 54 56 50 55 53 51 50 50 36 40 35 32 30 27 30 46 40 36 31 37 48 45 44 44 59 51 47 37 30 26 27 26 26 24 23 27
100 98 87 92 84 71 62 60 62 62 56 57 62 59 57 53 52 43 42 48 44 43 42 40 42 44 37 32 36 38 38 46 42 42 47 38 41 30 27 27 27 26 24 22 22
99 98 76 78 70 73 67 67 65 58 56 60 64 56 51 60 50 46 44 48 46 52 51 47 43 48 42 46 40 40 36 41 43 39 37 38 39 31 29 30 29 30 31 27 25
98 80 79 68 73 74 67 62 66 53 54 48 53 54 62 47 45 46 44 40 44 43 53 51 58 58 49 49 46 58 49 42 40 39 38 42 32 33 30 31 43 48 46 43 38

GFSSW_850_rhum_072.txt.gz
RH
100 92 84 74 66 61 52 40 36 24 20 21 20 17 16 14 11 15 24 22 13 14 18 19 25 26 20 14 17 17 14 12 13 18 14 30 37 61 58 48 60 69 67 82 84
69 76 98 94 86 72 66 61 46 36 24 19 20 18 16 14 11 17 22 19 16 13 19 22 20 26 22 17 17 15 14 12 11 11 13 28 46 46 48 53 55 67 82 98 97
44 48 52 55 70 86 80 71 63 49 38 22 18 18 17 15 15 25 23 23 23 21 22 21 20 22 19 20 18 16 15 14 13 15 17 28 37 45 38 32 38 52 75 96 99
20 23 55 62 54 61 63 66 68 64 50 37 20 18 18 17 12 29 24 23 23 21 21 22 19 20 18 17 18 18 16 17 16 30 34 30 36 36 39 47 60 62 78 97 98
9 18 42 53 60 57 47 38 56 67 65 50 31 19 19 31 21 11 25 21 23 19 24 21 23 22 18 18 20 20 18 29 28 37 37 36 35 38 41 70 70 66 93 92 96
5 8 22 44 44 54 55 37 32 60 65 61 44 23 27 27 13 11 13 24 23 24 23 23 22 23 21 21 22 27 30 33 37 36 34 29 33 36 52 83 87 88 87 99 99
12 6 10 23 38 36 46 34 29 45 51 58 56 30 35 27 15 11 22 27 28 30 22 21 22 24 24 21 30 30 30 30 30 30 26 30 32 33 53 69 68 85 98 93 99
22 13 6 8 19 26 21 19 24 37 32 47 53 26 36 16 13 11 18 29 27 26 26 28 27 27 25 24 26 26 26 24 25 26 28 31 25 35 53 59 52 68 81 90 98
19 28 16 6 7 13 12 18 26 30 39 47 40 29 30 21 16 12 15 25 26 22 26 26 28 25 25 21 24 22 21 21 23 22 24 27 23 33 47 43 41 55 62 77 96
56 22 21 14 7 6 8 10 21 33 43 42 51 45 29 20 27 28 13 21 25 30 30 29 25 23 20 20 25 21 21 22 22 20 22 22 22 30 47 43 40 43 51 66 71
98 80 53 32 10 6 10 15 58 59 62 47 39 33 28 29 26 29 25 25 23 24 23 25 25 26 18 17 17 19 21 22 18 19 21 20 20 23 44 48 43 47 49 60 59
99 99 85 72 25 7 21 67 85 72 59 50 26 45 42 43 37 33 27 22 22 23 22 26 28 20 19 20 22 21 23 23 20 21 25 20 20 18 35 44 43 44 45 45 67
95 98 99 97 39 11 29 82 73 80 67 53 55 40 35 39 30 26 29 20 20 21 23 22 21 21 22 24 24 23 25 25 23 23 23 24 21 22 24 36 44 46 44 47 46
96 96 99 99 47 74 77 63 72 72 54 30 42 43 40 31 30 22 29 20 19 20 19 21 18 24 25 23 24 27 21 23 24 27 23 23 21 17 20 28 36 43 47 46 49
83 94 97 100 100 96 95 87 70 88 24 23 41 44 41 24 19 22 26 24 19 21 23 22 23 26 26 24 24 25 23 25 26 26 25 23 19 16 20 21 20 30 41 46 49
64 85 92 96 98 80 86 88 79 68 31 24 43 44 41 31 24 24 24 24 18 19 22 18 24 24 21 23 24 25 28 28 29 26 30 23 23 16 16 17 17 18 24 38 46
62 76 97 95 92 85 97 96 67 56 23 20 44 44 34 28 26 23 23 26 24 30 28 22 22 20 24 25 26 27 29 34 39 35 31 28 27 19 14 16 19 18 21 26 34
64 73 99 93 99 98 99 94 76 21 28 30 32 42 40 23 22 24 23 25 19 19 20 26 29 22 20 21 21 25 26 31 36 35 28 29 25 18 17 19 19 25 28 29 31
64 69 98 90 93 97 99 88 33 23 28 26 27 46 43 25 22 25 25 22 20 20 22 25 22 19 22 21 20 31 31 25 34 42 36 22 20 14 14 15 20 22 29 33 32
84 98 98 76 91 99 94 62 33 23 25 41 28 34 46 28 27 26 26 21 20 19 15 21 24 22 28 26 28 26 23 34 32 40 37 23 23 19 16 16 19 16 16 31 37
87 99 90 75 90 100 88 56 36 31 34 41 45 34 34 34 21 26 24 23 18 22 19 18 22 34 32 31 24 33 31 28 27 30 35 34 24 15 15 15 18 17 22 25 36
100 99 86 74 96 91 81 46 36 31 43 48 47 51 50 32 30 22 23 19 20 19 26 19 23 28 26 23 23 22 24 27 32 32 34 38 30 15 16 17 20 20 22 27 33
98 97 94 79 94 92 63 53 37 38 33 45 48 44 48 50 35 28 25 24 21 21 22 23 27 32 28 27 30 29 26 26 28 34 31 45 31 19 19 20 19 20 20 25 31
96 98 87 98 67 62 60 53 51 40 38 36 41 43 48 47 41 37 35 33 28 21 23 24 23 27 30 21 17 26 22 23 25 35 28 25 23 17 17 18 17 17 21 24 26
97 96 66 94 91 62 54 43 47 47 42 39 46 44 43 48 46 44 36 42 36 38 26 26 26 24 20 17 16 18 17 20 26 23 26 24 20 16 18 17 17 19 24 24 23
95 80 60 54 73 72 61 61 44 41 41 39 44 41 41 44 39 53 41 38 39 43 33 29 27 27 28 22 23 23 21 20 24 22 23 24 21 15 16 19 22 22 25 26 27
91 68 52 62 61 84 73 60 53 36 36 35 36 29 43 44 49 47 45 42 38 40 42 39 31 36 35 31 33 51 34 24 24 25 25 26 19 16 18 20 22 24 35 38 47

GFSSW_850_rhum_075.txt.gz
RH
79 70 63 76 80 74 69 67 62 57 43 35 24 18 17 15 12 24 29 26 19 14 19 27 24 21 16 12 11 12 12 12 10 11 30 16 24 39 43 34 36 45 50 77 88
63 58 48 52 59 58 59 70 66 64 59 49 36 24 17 16 13 28 24 18 16 10 17 21 18 19 16 12 12 12 13 11 9 9 10 13 21 29 30 30 32 45 59 95 97
22 25 37 25 39 57 46 52 61 60 61 60 48 34 20 16 35 20 22 20 18 15 28 19 16 17 16 14 13 12 12 11 10 13 15 15 20 28 26 23 32 33 48 83 98
6 7 10 12 26 54 53 48 46 43 51 56 54 46 26 18 18 26 20 21 20 19 27 18 15 15 14 14 12 13 10 12 12 15 21 19 22 22 24 31 43 40 48 84 97
6 5 5 7 12 28 38 44 51 41 31 52 54 53 37 27 22 19 22 22 22 19 25 17 15 15 15 13 14 14 11 13 19 20 24 24 21 24 24 45 63 53 69 98 96
7 6 5 4 5 9 21 25 28 30 30 50 48 57 59 30 19 21 18 21 28 28 21 18 18 17 17 15 15 15 16 17 20 21 23 23 20 23 39 52 63 74 79 92 99
13 7 6 4 5 4 7 15 14 17 25 32 38 58 60 34 21 21 19 29 27 24 19 18 19 18 17 16 16 20 20 18 18 18 19 21 32 62 35 40 52 68 84 85 98
40 19 11 6 5 4 3 3 6 13 12 26 32 60 48 22 23 21 21 30 29 26 24 22 23 21 20 18 17 21 19 24 54 25 18 19 58 59 37 35 40 56 77 96 98
93 66 23 12 7 4 2 2 4 5 9 20 42 70 32 23 23 19 18 22 27 27 26 26 25 22 19 18 19 18 24 27 22 14 16 19 21 26 32 31 37 42 51 70 100
99 99 82 34 9 7 3 2 4 18 31 38 67 56 32 18 18 18 16 19 23 25 27 26 22 21 19 18 23 21 27 16 15 23 16 16 16 17 28 28 28 37 48 50 58
94 98 99 86 28 9 5 21 49 60 76 31 31 27 23 21 25 24 17 19 22 23 23 21 22 22 17 16 14 15 16 17 15 15 17 16 16 15 26 30 34 32 45 51 54
87 94 98 99 78 22 12 52 41 73 43 28 29 31 35 33 30 21 21 20 20 21 19 20 24 16 15 14 15 17 18 18 16 14 18 17 17 15 20 25 32 37 35 42 47
72 87 93 98 94 35 41 53 60 74 50 27 24 28 22 27 32 19 20 19 18 20 18 21 17 15 18 17 19 19 20 21 21 17 17 17 18 15 16 23 28 34 33 39 41
60 73 89 92 51 70 59 61 73 89 41 16 32 34 31 24 25 19 19 16 15 18 16 18 14 18 19 19 19 23 17 19 20 21 34 17 26 24 14 20 24 30 32 32 39
74 58 76 91 99 85 80 86 94 85 26 15 24 31 28 25 11 17 16 17 16 16 16 18 16 19 21 20 17 21 19 20 20 22 20 17 15 16 12 15 17 22 30 31 34
85 67 60 91 90 70 93 100 98 46 28 16 27 30 35 29 21 14 14 18 14 14 15 15 14 15 17 16 18 18 22 22 22 23 31 19 18 18 13 11 14 13 22 28 31
89 79 58 88 93 84 90 100 53 31 11 15 24 30 33 29 26 18 16 21 20 24 23 18 17 16 17 22 19 21 25 35 38 32 34 23 20 14 16 11 13 13 15 20 28
83 85 77 83 84 98 100 91 40 16 16 20 23 34 36 27 26 20 19 22 17 16 19 23 24 18 18 20 23 22 22 32 46 39 29 24 21 15 12 12 12 13 15 17 20
84 97 94 90 72 93 100 93 37 17 10 14 22 33 37 35 24 22 21 20 17 15 20 21 19 14 15 16 17 20 25 18 29 25 31 22 16 13 11 11 12 13 16 19 23
90 97 92 89 89 100 99 84 31 15 10 15 22 20 31 38 32 25 21 15 17 14 13 16 21 14 16 16 16 21 20 29 26 37 48 22 19 16 14 12 14 13 14 21 26
100 100 90 89 95 98 96 72 42 19 12 16 23 23 22 35 33 29 22 17 15 15 14 15 19 19 18 23 21 23 25 23 21 29 38 35 21 18 13 12 13 13 14 15 20
100 100 78 92 96 96 93 54 41 27 21 17 19 24 23 25 35 32 28 18 16 15 20 17 20 24 22 17 14 15 21 21 30 28 26 28 27 14 13 13 14 14 14 15 19
99 98 89 80 91 80 58 48 43 34 24 24 30 29 35 35 42 31 27 20 17 17 19 18 22 29 24 19 20 22 20 19 21 23 29 52 35 12 13 14 14 15 14 14 18
99 99 91 95 59 49 50 47 45 37 33 19 27 24 31 43 39 35 34 28 28 18 18 23 21 25 30 22 19 24 19 18 20 38 32 27 20 14 12 15 15 14 14 15 14
99 80 61 93 90 56 42 35 42 39 32 29 25 27 31 37 38 34 36 34 33 28 25 24 27 21 18 15 14 15 17 17 19 21 28 22 18 13 12 12 13 14 15 16 16
98 60 52 41 62 61 53 45 36 31 28 31 35 26 26 28 36 28 31 44 34 33 28 24 31 24 22 18 16 16 14 15 14 14 16 16 16 12 12 12 13 14 16 18 19
96 61 49 45 52 64 59 48 37 27 26 24 27 30 31 27 37 41 40 41 39 40 35 30 33 30 36 21 21 34 20 17 16 14 17 22 17 13 13 13 14 14 15 22 26

GFSSW_850_rhum_081.txt.gz
RH
5 6 6 7 11 12 14 17 14 21 31 24 23 30 27 22 16 14 13 12 27 28 16 18 23 19 21 22 17 15 20 20 18 20 15 18 24 19 43 58 69 74 50 57 95
4 4 3 3 3 3 3 4 4 8 16 18 19 15 12 13 12 14 20 20 22 23 14 15 24 20 22 18 17 15 22 20 15 14 15 15 25 19 39 52 56 62 44 63 93
5 5 4 3 3 2 2 2 3 4 7 10 12 11 8 9 14 27 20 18 19 13 12 20 22 20 17 14 15 16 18 14 12 10 14 15 22 44 43 54 57 59 55 75 81
16 6 5 5 4 3 3 2 2 2 5 8 9 8 7 7 31 25 22 18 15 14 13 18 22 18 18 19 14 18 14 13 12 11 15 16 22 54 53 63 62 73 72 83 84
41 16 9 6 5 4 3 3 2 2 3 5 7 11 10 23 25 7 23 21 18 17 14 18 24 19 20 16 15 19 16 13 17 21 22 21 38 41 45 40 66 67 75 96 97
59 50 31 16 9 6 4 3 2 2 2 2 6 12 31 63 8 27 26 20 18 19 18 19 23 18 16 18 20 15 16 15 18 22 20 26 32 33 33 45 60 73 86 98 94
81 82 69 48 20 11 5 3 2 2 1 2 4 19 37 5 3 18 28 24 24 24 25 20 19 18 17 22 17 18 23 22 22 24 27 24 37 42 34 38 56 73 83 91 98
61 83 93 84 64 20 11 4 2 2 2 2 5 28 33 1 8 6 18 21 23 28 26 24 20 22 19 19 21 24 23 28 33 28 28 28 42 40 40 47 55 65 91 98 98
50 51 65 87 90 46 23 6 3 3 2 3 17 39 52 26 24 16 17 21 22 23 26 23 21 22 23 31 36 30 35 31 35 28 32 39 46 43 36 37 51 69 92 97 99
52 53 56 62 77 68 34 7 3 3 6 48 67 78 42 18 20 18 20 19 20 20 24 24 21 30 34 36 46 36 34 36 38 32 35 35 39 53 38 41 64 79 87 99 97
36 51 53 54 56 64 52 14 30 46 70 62 51 29 17 24 27 20 20 19 18 16 32 26 34 39 34 30 26 26 26 34 34 25 29 27 35 56 50 51 69 82 96 96 98
36 41 57 51 45 44 57 34 41 77 66 53 47 54 52 30 33 25 22 19 20 24 26 32 36 28 25 23 23 22 24 24 20 19 21 24 22 28 38 48 56 62 70 82 97
29 39 44 52 45 60 86 90 84 72 68 50 41 28 19 12 16 15 21 22 20 22 25 35 30 23 24 24 24 23 22 24 24 22 21 24 30 23 25 43 46 51 61 67 65
27 43 53 54 48 66 84 95 84 72 94 40 25 25 26 21 19 12 9 25 20 21 22 27 23 24 24 25 21 25 21 20 25 25 35 26 44 28 30 40 46 45 57 74 73
21 70 78 66 51 40 56 82 80 72 85 17 13 18 18 19 16 17 14 19 27 20 22 25 24 25 25 22 20 25 22 24 26 31 33 32 40 34 27 35 43 49 49 60 66
33 40 87 67 51 51 87 74 76 90 81 20 24 28 26 18 18 18 16 18 20 21 20 21 17 18 19 18 19 18 23 26 28 34 48 34 37 40 32 30 30 39 51 51 64
83 46 83 80 44 74 81 77 98 96 17 13 21 28 31 31 22 24 23 22 26 36 35 26 23 18 15 21 20 22 27 53 66 66 64 51 49 34 25 22 24 38 39 48 50
92 79 70 80 47 73 84 94 100 48 40 15 13 21 34 29 30 30 28 30 22 28 33 36 38 22 16 18 24 25 30 62 64 85 82 66 60 35 23 18 15 17 33 39 47
87 88 78 79 64 85 92 94 71 49 30 25 20 19 20 30 32 31 32 32 23 22 35 34 30 18 16 18 22 29 36 30 55 64 72 63 44 27 21 19 16 13 12 34 41
91 96 96 65 74 91 98 74 56 42 34 32 46 34 34 34 38 38 37 27 27 19 21 29 36 21 17 17 21 23 24 42 46 74 82 45 47 41 27 23 18 17 24 22 30
100 99 99 72 83 99 91 73 57 43 36 40 41 43 40 46 49 62 50 27 24 22 20 23 32 31 24 22 25 29 30 33 34 48 59 60 50 36 29 23 19 18 16 16 18
100 100 98 73 98 94 88 63 51 45 38 37 36 39 43 41 44 45 52 36 21 25 26 28 36 42 33 22 18 21 28 31 63 49 56 62 54 27 24 24 21 18 15 15 15
100 99 99 90 96 95 71 64 62 61 51 44 45 36 35 39 50 47 55 32 23 29 33 30 41 50 38 27 22 24 25 24 32 44 53 79 62 24 25 21 16 15 14 14 16
100 99 100 100 95 80 88 72 71 55 57 50 45 36 39 45 40 56 77 51 30 34 33 35 40 40 49 37 30 31 24 24 31 55 49 54 39 29 26 21 19 16 18 16 18
100 98 90 97 96 81 68 62 70 64 47 43 48 48 48 47 49 59 70 81 43 40 42 41 52 39 34 26 26 27 26 25 27 33 39 39 36 29 24 19 18 18 15 18 18
98 96 86 70 82 94 83 75 75 55 47 44 50 42 42 50 47 59 77 87 85 46 50 51 50 46 44 35 28 27 26 25 23 24 24 25 29 21 18 15 16 15 18 19 20
100 91 74 80 82 92 85 71 68 54 46 36 36 39 42 41 40 54 79 90 83 62 59 60 70 54 60 40 39 49 31 26 27 23 25 29 24 19 17 16 15 15 15 16 15

GFSSW_850_rhum_087.txt.gz
RH
7 6 5 4 3 2 2 2 2 2 2 2 2 1 2 1 3 5 7 18 16 14 22 18 16 21 17 20 23 21 32 36 28 22 18 14 26 44 48 47 50 56 50 49 46
20 7 6 6 5 4 3 3 2 2 2 2 1 1 1 1 2 4 10 20 17 26 27 20 14 26 25 25 23 25 33 27 21 18 19 18 26 41 55 57 59 52 54 58 63
21 21 7 6 5 5 4 4 3 2 2 2 2 1 1 1 3 12 20 19 22 23 23 18 13 24 26 24 22 23 29 22 18 16 17 18 43 45 56 67 63 62 63 63 73
25 26 16 6 5 4 5 5 5 4 3 2 3 2 1 2 7 26 24 18 24 21 19 15 14 24 24 22 18 20 18 18 17 18 24 23 37 51 55 53 63 67 60 68 92
40 33 28 16 10 6 4 3 4 5 5 4 4 3 2 9 5 3 7 20 17 23 19 15 15 24 28 23 20 22 20 20 20 20 25 32 38 41 60 71 71 66 69 98 91
51 44 42 32 20 15 12 7 4 4 6 7 6 4 8 49 6 5 20 18 10 24 21 20 15 18 25 25 24 21 22 24 21 20 23 31 39 42 47 74 78 73 74 88 98
35 36 34 32 25 18 17 13 8 6 4 7 9 7 12 3 3 2 2 6 28 30 24 23 21 21 25 28 24 23 27 28 23 21 26 27 35 47 35 59 92 83 88 94 99
45 29 24 20 20 20 19 14 11 8 6 5 9 12 16 2 2 4 2 2 13 30 27 25 30 27 28 26 28 28 30 36 27 25 26 27 38 39 42 77 91 86 94 100 99
35 25 19 16 15 17 15 12 8 7 6 5 10 15 14 7 11 19 28 24 16 7 26 25 33 34 32 34 41 38 43 39 35 26 29 33 36 39 45 67 90 90 98 98 99
15 16 18 15 16 14 13 14 22 34 19 17 59 42 5 4 15 26 28 27 26 17 24 28 30 36 42 42 52 48 44 36 40 32 36 40 42 42 48 60 78 86 100 100 94
16 15 14 14 15 14 27 21 35 44 56 73 78 60 17 31 25 25 28 36 27 24 34 30 41 43 40 39 33 34 38 41 34 28 33 34 41 34 46 54 86 100 97 92 88
20 18 15 14 14 14 54 89 96 96 95 57 43 49 47 39 61 14 26 31 28 32 31 34 46 32 33 34 36 38 42 42 35 28 31 35 36 29 59 61 73 94 89 71 85
23 21 18 15 14 20 32 85 84 80 99 75 40 44 30 27 46 25 23 27 28 33 34 34 32 29 34 37 38 38 42 42 40 31 30 29 35 30 45 59 70 85 75 56 52
25 23 20 16 21 27 39 75 65 80 97 65 59 36 34 32 38 21 28 26 29 32 30 31 23 26 36 36 36 43 34 34 36 39 42 29 49 36 37 64 74 80 81 63 50
28 28 26 20 24 25 23 30 54 96 45 18 30 28 33 26 18 21 23 29 26 32 28 33 28 27 30 36 33 37 32 36 38 38 38 36 46 41 56 66 70 71 79 66 55
30 32 56 35 25 32 31 27 74 88 65 31 23 35 34 30 25 20 21 17 15 21 30 28 21 25 23 24 30 29 32 33 43 44 55 47 50 53 47 48 52 58 63 66 54
70 53 78 66 45 42 54 48 95 87 41 29 36 32 28 29 28 23 23 24 30 30 25 29 32 25 23 30 27 34 38 56 59 57 62 56 69 54 36 33 38 51 55 57 53
81 80 81 82 77 56 70 76 95 55 55 36 36 32 28 40 41 49 28 30 24 29 38 22 33 31 23 26 32 36 37 62 57 73 57 60 66 46 35 29 29 30 33 51 64
78 84 91 68 85 80 80 93 54 50 40 40 33 43 44 40 44 54 65 57 32 26 40 47 41 26 22 22 23 32 40 32 50 67 78 62 52 40 34 32 24 41 46 48 54
97 99 97 68 87 90 86 69 57 36 34 33 42 43 50 42 42 53 67 60 59 45 37 35 43 31 25 24 26 27 32 45 60 73 80 64 57 52 38 25 24 41 51 48 47
100 97 87 71 87 97 91 74 53 35 33 39 46 38 35 40 45 51 64 56 51 50 53 60 43 37 28 33 34 36 32 40 42 63 54 70 59 43 41 35 23 23 36 40 45
100 98 84 76 98 88 87 58 50 52 46 54 50 46 52 52 49 45 49 50 39 53 64 66 50 46 34 27 25 27 29 35 54 58 64 66 53 30 36 31 27 23 20 28 41
97 92 92 90 93 93 67 64 60 53 51 61 63 54 49 54 67 55 47 33 34 60 75 83 85 62 43 35 27 31 32 35 48 59 68 69 59 31 32 34 26 25 20 17 22
96 97 97 100 96 85 76 76 80 72 62 56 57 57 66 64 56 69 60 48 44 61 63 77 95 86 55 42 35 38 32 33 43 62 56 56 46 34 32 35 29 23 21 20 17
99 97 94 97 96 94 69 68 76 74 72 71 76 72 73 76 72 69 56 46 48 76 64 86 98 74 52 31 29 36 37 36 39 42 49 42 46 35 34 32 28 20 19 20 19
98 99 100 85 79 97 97 88 70 67 63 69 71 59 67 80 66 61 48 46 71 84 84 83 99 93 60 46 30 30 30 38 43 41 38 36 37 32 28 25 28 22 20 20 16
100 99 98 94 78 89 86 84 77 62 58 61 59 67 71 66 54 51 49 48 57 68 89 97 99 92 74 46 47 59 47 36 33 36 33 42 39 30 33 31 28 22 21 18 18

GFSSW_850_rhum_093.txt.gz
RH
6 6 5 4 3 3 3 3 3 3 3 4 4 4 3 1 1 2 3 4 7 15 16 18 15 13 16 16 24 23 25 27 24 25 18 17 21 26 34 49 49 46 43 45 47
18 15 15 13 11 9 7 6 4 3 2 2 2 3 4 4 3 4 22 15 14 20 22 22 19 20 22 24 26 23 27 25 21 19 18 18 22 20 44 53 50 50 44 44 49
24 24 24 24 20 17 14 12 10 8 6 4 2 2 3 3 6 6 26 25 27 21 22 30 22 26 28 29 28 28 24 24 21 20 20 20 21 30 44 35 39 40 41 46 54
36 26 21 19 17 14 13 13 13 12 11 8 6 3 2 3 11 18 25 28 24 33 31 26 22 26 28 27 27 26 24 23 18 17 24 22 26 39 48 26 32 39 46 58 60
61 27 22 18 16 13 12 11 11 11 11 10 9 7 5 6 2 5 6 4 26 28 29 27 20 22 27 26 23 24 20 20 18 19 25 25 28 30 41 26 36 48 52 61 62
56 35 24 18 14 12 12 11 10 10 9 9 9 10 12 27 2 4 6 13 14 17 15 22 19 17 25 26 24 24 22 21 25 25 25 24 23 42 23 26 40 56 61 78 71
41 23 15 13 12 12 11 10 10 9 8 8 10 15 20 4 2 2 2 5 4 4 13 15 22 26 26 28 26 28 30 27 26 24 23 25 29 38 27 36 64 73 78 95 89
30 18 15 14 13 12 11 10 9 8 10 14 16 23 17 3 2 2 2 2 2 3 14 26 25 26 27 25 32 31 32 30 25 25 25 29 26 26 27 53 70 84 93 98 100
23 18 17 15 14 13 12 10 9 20 40 35 19 24 16 9 7 21 37 36 36 15 4 26 32 31 35 34 34 38 26 34 26 26 28 31 30 25 37 59 61 81 90 93 98
29 21 19 18 16 15 12 10 18 41 52 66 54 45 8 16 12 20 31 38 37 32 20 24 35 42 44 40 34 33 39 40 32 28 28 27 28 24 29 49 52 74 88 90 93
53 28 23 20 19 17 13 10 30 51 37 48 41 65 17 18 21 26 40 35 35 27 26 39 37 50 37 37 32 33 35 34 33 29 29 25 26 24 22 37 49 70 84 90 94
85 41 27 22 20 18 20 51 90 88 95 55 40 70 47 36 58 23 34 35 35 34 34 41 33 34 32 38 39 35 35 36 32 28 31 28 27 22 24 28 38 52 74 81 92
89 68 32 23 21 21 26 59 44 59 97 72 58 67 47 56 58 38 29 34 36 35 36 29 33 30 34 38 42 39 40 39 35 31 30 31 31 27 24 39 48 60 63 77 74
90 84 49 26 24 25 26 36 30 68 85 57 65 45 46 51 53 24 29 19 28 36 34 34 27 31 37 35 35 38 34 35 37 37 36 31 37 32 25 24 32 55 76 80 70
90 84 66 36 27 28 25 20 25 92 26 23 39 38 39 41 33 30 36 31 26 28 33 39 31 33 33 37 36 36 33 36 36 41 41 36 41 33 35 30 25 26 65 78 57
85 78 74 61 40 42 28 23 64 66 37 38 33 33 31 37 34 37 34 30 29 30 31 28 26 29 28 25 35 34 36 36 44 46 55 44 39 34 32 29 25 30 44 66 59
75 72 85 78 50 48 37 32 86 63 34 46 36 29 37 33 44 39 37 40 28 43 37 28 29 26 26 28 36 36 37 44 56 60 50 40 46 33 31 27 27 25 28 42 51
86 84 81 75 61 63 52 56 94 38 59 35 26 32 43 18 22 35 49 52 50 38 34 24 20 26 25 28 32 38 36 42 47 53 42 58 53 36 33 29 32 32 32 33 46
80 78 72 50 70 77 58 56 34 50 36 37 24 29 37 27 21 21 40 59 55 49 49 58 30 28 20 24 25 37 43 30 39 57 54 44 49 36 31 29 29 25 30 41 42
83 90 67 54 75 92 82 42 34 43 35 33 28 29 34 30 25 30 24 45 54 52 52 63 75 34 28 23 23 27 33 47 48 48 44 44 52 32 30 25 24 24 28 37 44
99 92 64 77 91 93 90 68 55 44 38 40 46 42 43 42 40 30 33 40 47 28 42 63 74 60 41 34 32 33 33 35 40 52 43 42 42 41 32 26 28 26 29 23 42
99 99 78 93 98 86 80 64 54 47 45 49 53 48 41 34 30 30 28 38 28 41 49 74 78 85 58 41 35 29 34 31 42 40 59 48 36 29 35 31 34 31 24 21 25
98 80 87 100 89 88 68 62 57 58 51 52 66 58 60 58 52 52 56 40 52 48 50 42 82 77 57 43 48 52 49 49 41 44 42 54 41 32 32 34 30 29 22 23 22
98 96 94 99 96 74 71 69 70 60 59 55 57 58 61 65 64 67 65 52 48 44 45 50 64 52 54 70 62 69 64 54 72 68 44 42 33 31 30 32 27 28 21 21 22
98 94 76 94 94 95 87 71 75 72 62 64 68 61 57 62 59 62 55 54 48 45 50 65 83 74 59 50 46 55 59 53 65 71 55 36 35 30 26 26 24 25 22 23 23
96 90 82 89 72 82 79 85 74 68 61 65 69 62 68 81 66 65 65 62 69 57 71 83 98 82 77 62 60 58 50 57 63 66 54 36 33 31 29 30 31 28 29 24 20
93 84 96 75 76 85 78 77 71 60 63 60 55 88 100 82 79 80 75 70 73 79 73 75 81 96 78 62 65 75 57 61 56 49 39 45 35 31 31 33 31 30 27 27 22

GFSSW_850_rhum_096.txt.gz
RH
14 15 15 13 14 14 13 12 11 9 6 4 2 2 2 2 4 6 11 11 6 8 15 22 25 23 22 16 19 18 14 13 11 11 10 13 16 17 25 25 31 34 33 40 58
22 18 15 15 14 12 13 14 14 13 11 10 7 4 2 2 2 6 15 23 19 12 21 27 21 20 15 15 16 15 13 11 10 9 11 13 16 16 19 18 24 26 35 54 67
33 28 18 15 14 14 12 12 11 10 9 9 8 7 5 3 6 10 24 24 25 23 30 24 22 19 16 18 17 15 15 9 12 12 14 13 14 15 18 16 14 16 19 38 66
39 27 20 16 13 12 11 10 10 10 8 7 7 6 5 6 5 17 27 27 28 26 28 28 27 22 18 18 16 19 15 12 12 12 15 14 14 15 16 17 17 29 33 51 63
51 36 23 17 12 11 10 10 10 9 8 8 7 6 7 24 10 4 2 2 6 32 33 28 24 21 17 14 15 21 14 14 13 14 14 16 16 16 15 15 17 33 60 57 60
45 31 19 14 12 11 10 10 10 9 8 7 7 8 28 21 8 3 2 6 16 21 26 30 23 19 15 15 16 12 16 13 13 14 15 18 15 13 16 14 28 49 52 64 69
35 28 17 14 13 12 11 11 10 8 6 6 10 19 44 17 6 5 2 5 12 18 14 15 21 22 19 18 18 18 18 14 14 14 14 14 16 13 14 24 32 46 56 62 65
30 22 18 16 15 14 12 11 10 8 8 13 20 31 42 4 4 3 4 4 3 3 4 10 23 22 21 20 22 21 19 21 14 13 14 19 15 15 21 27 22 30 48 62 68
48 30 22 18 16 15 13 11 9 12 18 32 47 50 28 9 14 22 26 25 34 33 8 25 31 24 24 24 22 19 22 18 18 14 13 20 16 15 24 25 24 26 38 49 60
95 62 28 21 18 17 14 11 11 25 49 45 56 57 17 15 29 28 42 40 40 36 23 20 29 27 26 24 28 22 22 21 20 14 20 17 19 15 15 18 20 22 32 43 53
97 89 41 24 20 19 14 18 35 46 45 33 19 33 27 27 37 27 49 45 38 34 24 14 26 31 22 23 21 18 21 20 16 17 22 19 14 13 14 15 17 21 31 39 48
91 92 70 30 22 20 22 62 73 59 70 48 48 52 50 51 48 30 34 39 35 26 26 25 21 14 18 20 23 23 24 21 17 16 20 19 16 14 14 14 16 18 25 34 45
88 93 83 39 24 22 32 56 36 60 75 40 50 54 51 56 48 33 30 23 32 25 29 33 20 17 15 24 28 25 24 22 22 18 19 21 20 13 12 17 20 26 27 31 39
82 89 85 49 38 28 61 31 29 68 55 21 33 41 51 52 43 33 32 18 20 28 26 29 20 20 22 22 21 28 19 22 22 22 26 20 22 13 15 16 15 15 26 33 39
83 87 88 70 46 64 38 24 28 97 16 22 33 41 29 38 31 30 37 28 20 15 31 31 28 27 25 25 22 26 22 20 25 25 24 23 26 18 15 21 17 14 16 32 42
81 85 79 86 55 52 30 25 70 64 19 22 26 23 24 28 28 31 30 32 27 21 18 26 20 24 25 20 23 23 29 30 30 30 39 30 24 18 16 19 16 15 21 32 42
82 80 81 82 74 43 32 55 52 28 14 28 29 24 26 22 29 17 34 33 27 34 28 18 22 17 21 28 24 28 35 41 46 45 41 22 29 20 19 17 16 16 16 30 42
79 92 91 87 88 56 69 36 55 19 23 28 25 22 31 19 16 12 36 32 32 33 24 23 22 18 18 21 24 33 34 37 38 36 31 28 33 23 18 16 16 21 22 27 40
97 92 83 89 57 69 60 34 16 20 23 25 15 14 14 23 16 16 16 45 39 32 41 42 31 23 15 17 18 25 36 26 30 27 39 30 28 25 20 20 18 18 17 23 35
95 97 78 87 57 92 50 30 17 24 28 26 18 15 15 19 20 18 15 31 45 24 26 34 51 29 24 20 18 19 19 37 34 44 39 25 25 25 20 19 16 18 16 20 29
95 86 85 72 70 83 58 27 24 25 30 27 22 24 21 24 20 17 15 14 24 25 21 38 44 38 34 27 21 21 27 27 25 29 36 35 25 19 19 18 17 17 17 21 29
98 84 74 94 88 69 55 40 38 30 34 27 26 31 29 23 21 16 16 13 14 21 24 37 44 51 43 32 33 37 28 23 31 30 32 33 29 18 19 19 18 19 21 22 29
98 76 81 98 76 63 48 47 45 40 35 28 27 26 23 26 25 20 22 24 33 42 43 40 51 51 44 39 41 42 39 42 43 38 39 44 33 18 17 21 23 21 18 22 26
98 90 93 100 88 53 48 46 50 48 47 41 38 36 37 42 36 37 41 41 45 41 44 43 43 40 35 40 36 44 44 39 46 60 41 35 29 21 18 18 17 16 18 19 25
95 73 62 85 83 92 54 51 49 52 49 47 48 44 39 39 35 39 37 37 34 34 40 39 51 38 37 33 28 30 30 30 41 40 52 43 37 24 22 19 18 18 18 21 22
97 84 70 46 47 58 65 64 56 51 50 47 54 42 48 57 41 45 59 50 52 45 53 61 55 59 56 42 40 38 28 27 29 33 34 34 38 28 23 19 18 18 17 17 21
98 86 71 48 49 57 55 62 52 47 50 48 46 50 52 56 76 95 83 72 62 57 59 63 60 63 56 46 52 61 43 32 25 24 36 47 33 24 23 20 18 22 22 20 22

GFSSW_850_rhum_102.txt.gz
RH
19 13 10 10 8 7 6 6 5 5 4 4 3 3 4 8 14 11 13 16 16 19 19 15 22 28 20 16 14 12 14 14 12 10 9 7 7 9 10 10 12 12 13 16 28
39 21 12 12 13 12 9 7 6 5 5 5 4 3 3 3 7 10 17 16 13 14 16 23 24 24 21 15 13 12 15 13 9 8 8 8 8 7 9 10 10 11 11 13 29
32 25 15 13 14 11 9 7 6 5 5 5 4 3 3 2 15 24 14 17 23 22 20 20 20 21 19 15 13 12 14 11 9 8 8 8 8 8 8 9 9 10 11 12 30
47 29 19 14 11 10 9 8 8 6 6 5 4 3 3 3 16 19 13 7 9 9 31 27 21 20 18 16 14 13 10 10 9 10 9 10 9 9 9 9 9 9 10 12 20
55 20 14 16 13 11 9 8 8 7 6 5 4 4 5 33 23 14 15 10 10 15 22 25 20 19 18 16 14 14 12 11 11 10 11 11 10 10 10 10 9 9 9 11 20
58 28 19 18 14 12 10 8 7 5 5 4 4 5 23 32 12 10 11 13 11 17 14 19 19 19 18 18 18 16 14 12 11 11 12 12 11 10 10 10 10 10 10 13 22
70 50 29 20 16 11 8 7 6 5 4 4 5 10 51 24 14 16 16 14 12 14 16 12 14 19 20 20 17 16 17 13 12 11 12 11 13 12 11 10 10 9 9 15 27
82 66 38 18 13 9 6 5 5 4 4 7 13 47 55 19 21 13 13 11 10 12 16 16 14 14 13 14 17 20 19 23 16 13 12 12 17 12 11 10 10 9 14 17 25
86 81 64 46 22 10 6 5 4 16 24 24 42 76 40 20 16 19 25 27 12 12 10 8 9 11 10 14 18 18 26 24 20 14 13 13 15 11 10 10 12 14 14 14 22
89 84 78 68 41 18 8 5 16 26 51 59 71 54 40 17 12 13 16 18 25 28 27 22 14 9 8 13 23 20 23 21 23 17 15 14 14 12 11 11 13 14 14 13 14
73 76 74 71 51 18 18 36 28 56 56 32 26 37 21 12 12 15 16 14 27 28 29 21 16 14 12 12 12 15 18 26 28 23 22 17 15 13 12 11 11 11 11 12 12
82 74 74 73 47 19 44 50 49 54 50 32 24 20 17 18 20 21 18 15 24 27 20 23 26 16 12 11 11 12 20 26 24 23 24 21 17 13 13 13 12 11 10 11 12
85 81 77 72 38 66 53 55 51 60 51 24 17 19 20 24 22 22 17 16 17 20 19 20 16 12 15 17 18 15 16 28 32 27 25 24 22 17 13 13 12 11 10 10 12
82 82 79 76 64 75 56 61 56 71 52 13 20 19 27 30 27 25 21 16 14 15 12 13 12 14 15 20 18 24 16 17 18 24 37 24 30 20 15 14 13 12 12 10 13
81 79 83 76 76 69 56 65 59 80 37 15 20 27 24 27 21 20 20 21 21 14 11 13 12 13 16 16 17 22 16 18 21 26 26 24 26 21 16 16 14 12 10 12 14
87 89 84 81 73 73 67 73 71 64 30 12 19 22 20 21 19 17 22 24 20 19 17 16 11 10 15 16 18 17 20 22 22 24 38 28 26 24 19 17 14 12 10 12 12
91 93 88 82 76 76 80 68 56 40 8 9 14 15 16 13 18 16 16 22 27 28 27 18 16 12 9 17 20 23 28 41 44 45 42 24 26 24 18 15 15 13 12 14 16
80 87 90 86 78 76 74 56 62 18 16 11 16 16 18 12 11 13 16 14 11 18 22 24 21 14 13 12 18 22 30 47 67 54 48 48 62 26 15 14 13 12 13 15 18
88 92 90 80 75 80 73 63 34 20 12 13 12 18 17 11 14 12 13 14 11 35 36 32 22 18 14 11 13 21 31 25 42 40 52 52 34 22 17 16 14 13 13 15 20
98 98 90 80 88 96 90 67 31 17 12 16 22 16 13 9 8 15 14 9 17 27 24 27 41 23 18 12 13 17 16 31 37 61 67 41 37 45 36 28 19 18 16 14 16
94 99 74 74 96 100 85 50 32 23 19 19 22 20 14 13 10 11 12 10 14 16 18 18 29 28 21 26 22 19 24 26 30 39 55 55 38 28 27 26 21 23 17 16 14
98 100 75 90 98 78 65 40 31 23 17 16 19 19 19 17 16 16 15 14 9 11 14 14 22 39 27 30 28 35 26 25 36 38 37 41 36 19 28 28 23 22 20 19 18
98 91 75 97 96 79 48 38 30 27 22 21 22 19 18 18 22 19 18 14 13 13 13 30 35 39 28 18 16 25 27 27 24 28 36 51 44 21 23 28 22 17 17 18 19
99 90 70 99 86 63 80 52 31 25 24 22 23 20 22 23 19 22 21 16 15 16 38 40 41 49 46 26 35 48 39 36 31 80 42 31 24 19 28 28 22 17 16 17 18
98 89 54 76 77 60 52 72 78 43 30 27 28 27 28 31 27 25 21 20 17 22 30 33 43 34 30 24 21 24 30 32 34 33 61 45 35 28 28 32 24 20 20 18 17
97 98 56 59 85 74 53 50 47 40 29 51 31 25 26 30 27 27 23 24 25 22 23 28 39 31 35 26 23 22 21 24 26 24 23 23 24 18 17 16 16 17 17 18 19
96 80 100 62 48 52 48 66 38 29 39 36 38 60 52 38 50 55 57 51 50 56 62 60 46 37 48 33 28 34 22 20 21 19 20 24 20 16 17 17 18 19 20 19 18

GFSSW_850_rhum_105.txt.gz
RH
16 11 11 8 7 7 5 4 4 3 3 3 3 3 2 2 2 2 5 10 11 15 16 23 17 14 20 24 21 16 23 25 21 18 14 10 10 10 10 10 10 10 12 12 22
17 11 8 7 6 5 5 4 4 4 4 4 4 3 2 2 2 7 18 18 18 16 15 15 17 25 31 22 18 19 23 21 16 14 14 11 11 9 10 12 11 11 12 14 30
16 14 10 7 6 6 5 5 5 5 5 5 4 3 3 2 6 25 11 13 21 21 21 22 21 23 26 24 22 18 21 16 14 12 12 12 11 10 10 12 10 11 10 20 31
26 20 14 10 11 7 7 6 5 5 5 5 4 4 3 4 22 20 14 15 14 10 8 21 22 22 26 28 21 23 17 15 13 11 11 12 11 13 11 11 10 9 9 12 29
62 37 24 15 13 10 7 6 5 5 5 5 5 5 5 27 15 8 13 13 10 11 12 31 28 25 27 24 20 21 18 15 14 12 11 11 13 14 13 11 10 10 10 9 22
76 70 38 27 17 13 8 6 5 5 4 4 5 6 20 62 8 16 16 12 10 11 15 19 20 19 20 22 24 20 19 19 17 16 14 14 15 14 13 12 11 10 10 10 10
81 76 60 42 25 12 9 6 4 4 4 4 10 14 28 5 4 14 15 16 16 11 12 15 12 14 16 24 18 18 25 22 20 16 16 14 16 16 12 11 11 11 11 11 11
88 85 83 67 35 17 11 7 4 3 4 18 33 35 40 5 19 11 11 17 17 10 11 16 16 14 14 14 14 16 20 31 22 20 17 17 22 15 13 12 12 12 12 12 14
78 76 76 69 43 20 10 6 3 5 11 31 40 73 74 29 17 18 20 26 26 13 10 11 10 9 12 16 22 20 25 26 23 19 19 19 23 18 21 13 13 12 10 11 14
88 79 72 63 41 23 9 15 13 25 36 60 63 80 48 20 14 12 12 15 16 24 24 11 10 14 15 16 22 25 27 22 24 20 25 28 29 24 23 19 12 12 14 14 14
86 88 77 70 42 22 37 38 35 41 32 60 49 54 31 24 18 12 12 15 15 19 42 29 35 30 19 14 11 13 17 19 17 19 26 29 31 27 22 21 15 14 14 15 14
77 84 84 76 38 68 58 54 52 57 62 30 12 17 18 26 20 5 13 20 18 33 33 37 38 25 15 12 12 13 17 18 16 21 22 28 36 32 29 25 22 15 13 12 13
77 78 78 71 36 69 60 59 54 56 73 43 19 26 24 15 21 18 18 20 20 27 33 37 30 24 22 22 20 19 23 22 19 18 23 32 40 37 28 21 17 13 12 12 13
76 75 77 71 64 63 63 66 60 63 97 45 24 18 18 22 26 20 21 18 19 22 23 24 19 21 21 21 20 26 21 22 22 25 33 30 46 45 33 24 19 14 13 13 15
67 84 83 77 72 67 74 81 58 73 91 18 19 18 21 28 24 25 20 20 24 21 20 23 14 16 16 14 16 21 25 25 26 29 32 29 33 36 24 22 18 16 15 14 13
70 87 88 81 72 70 82 78 63 85 82 18 25 26 27 28 27 20 22 21 21 26 25 25 16 17 16 15 15 20 28 30 27 32 44 31 32 33 27 22 18 16 13 13 14
75 84 89 93 80 54 80 76 88 97 16 11 18 24 23 29 28 22 26 32 38 41 40 28 24 17 16 20 17 23 34 57 58 55 50 29 34 31 27 20 17 16 15 15 13
74 78 78 80 71 68 84 83 91 38 24 14 14 16 22 18 18 18 21 27 23 28 34 35 37 20 16 19 19 32 35 65 66 68 48 39 62 46 26 24 21 15 14 23 38
72 62 68 70 67 80 96 99 57 32 24 22 19 21 21 19 18 17 20 20 15 29 44 47 35 27 25 22 15 20 34 27 47 45 59 53 42 32 43 42 34 18 14 22 42
77 80 75 57 82 84 97 78 50 31 27 31 38 22 27 20 19 18 16 14 20 38 28 34 47 28 22 25 24 19 21 34 46 72 80 50 42 46 48 54 43 28 25 22 30
76 95 61 65 84 99 95 79 48 39 36 37 36 27 28 26 22 22 19 15 16 36 19 20 32 35 27 28 52 63 31 26 32 54 71 73 55 43 65 67 61 40 23 23 26
100 99 76 81 98 98 94 61 45 41 38 36 29 24 30 29 27 27 26 23 16 18 20 18 27 40 30 22 42 58 67 56 36 44 53 52 49 27 40 40 55 42 33 30 25
96 91 67 63 97 94 65 54 47 46 41 37 31 24 27 31 35 28 28 22 19 23 26 24 51 74 48 27 22 44 50 62 71 38 42 58 53 26 28 57 53 44 35 35 22
97 99 82 88 96 94 95 81 82 50 40 32 32 25 31 35 30 35 31 26 21 25 34 37 44 52 69 58 42 42 32 35 80 95 90 68 52 34 35 52 54 46 38 29 22
98 94 73 94 93 89 81 71 72 88 64 36 31 32 35 41 41 39 34 30 24 20 34 41 55 46 40 35 33 32 30 26 29 35 81 65 70 51 40 45 45 48 30 18 18
96 98 79 91 75 76 87 77 64 52 98 83 80 55 54 43 37 57 68 64 60 60 58 47 56 47 48 34 29 35 30 27 25 24 28 28 32 26 17 19 19 28 21 20 20
100 86 99 76 94 82 90 62 62 78 58 36 59 64 62 54 55 57 60 60 63 63 66 70 64 65 66 42 38 48 36 30 24 20 23 29 25 22 16 14 50 64 63 65 62

GFSSW_850_rhum_108.txt.gz
RH
17 13 9 7 6 6 5 5 4 4 4 4 3 3 2 2 2 2 3 4 7 12 19 18 21 19 19 30 28 23 31 37 28 24 20 14 14 12 11 12 11 12 11 10 16
11 10 8 7 6 6 6 4 4 4 4 4 4 3 3 2 2 2 15 17 14 17 16 15 18 18 27 30 24 25 34 29 20 19 18 15 15 13 11 11 12 11 11 13 17
24 14 9 8 7 6 5 5 5 4 4 4 4 3 3 2 3 7 14 14 16 18 17 22 18 20 34 28 24 24 26 21 18 16 15 16 16 13 12 14 12 11 10 15 26
32 29 17 11 8 7 6 5 5 5 4 4 4 4 3 3 10 23 17 14 16 14 11 17 24 25 27 34 27 33 25 21 18 16 16 16 13 13 12 12 11 11 11 16 26
60 44 32 20 15 8 8 6 5 5 5 4 4 4 5 13 6 2 12 15 12 10 13 16 31 29 34 29 25 28 26 22 20 18 17 16 17 16 15 12 12 11 11 13 22
64 62 54 56 35 14 8 8 5 4 4 4 5 9 21 56 5 18 17 18 15 13 11 15 24 22 22 25 30 23 23 24 21 21 20 19 18 15 14 12 12 12 11 11 12
68 62 59 42 34 20 8 6 5 4 4 4 7 34 38 5 2 8 16 17 17 16 12 12 16 16 16 17 16 16 21 21 20 21 21 18 22 20 14 15 17 18 15 12 12
86 86 62 55 35 16 8 5 4 3 4 4 14 47 37 2 11 15 14 14 15 18 11 10 12 12 15 14 16 18 21 30 24 21 20 21 28 22 17 21 23 23 21 16 12
77 81 82 61 44 18 9 6 4 6 6 13 31 52 52 18 21 16 20 22 26 26 13 10 11 10 10 17 22 21 31 33 27 17 19 22 23 21 20 22 23 23 23 20 14
79 68 68 66 40 29 35 18 18 39 42 49 70 80 27 13 26 17 12 12 15 14 23 23 12 15 17 20 30 28 28 24 24 20 22 30 31 27 23 24 26 27 25 22 14
68 72 70 55 33 64 50 27 44 36 37 52 59 63 30 31 31 24 17 12 14 16 30 30 25 28 14 18 18 19 18 19 16 13 20 27 31 26 25 24 24 26 26 25 20
62 54 61 54 25 63 67 72 69 71 69 49 23 15 25 29 34 4 8 13 21 23 30 40 48 29 22 19 17 16 16 16 14 14 19 24 23 17 28 28 25 28 26 22 19
59 53 61 50 23 61 67 78 71 65 77 49 19 26 17 11 22 10 12 19 24 26 34 43 38 30 30 28 20 18 17 17 19 19 19 26 28 27 26 30 29 28 24 20 18
69 60 73 56 44 48 68 66 52 65 93 48 31 25 21 20 27 13 10 14 24 25 28 35 28 32 33 33 29 35 24 24 27 29 34 25 36 26 22 25 28 25 20 18 19
72 65 80 81 60 56 72 56 44 74 41 19 22 17 18 27 25 26 20 20 25 22 24 30 18 28 30 28 25 28 25 28 30 34 32 31 40 25 26 24 22 21 18 17 16
65 68 79 81 70 67 66 66 43 68 62 26 23 23 33 29 26 26 23 22 21 25 26 29 22 21 21 17 18 19 26 31 32 38 47 34 39 31 31 26 22 18 17 17 17
67 72 76 80 69 65 68 64 71 95 30 19 21 19 20 35 34 32 30 31 36 44 44 31 28 23 20 24 21 24 37 56 59 59 48 31 39 32 27 23 25 26 26 29 29
69 73 63 58 63 72 74 80 95 37 36 22 31 20 20 19 32 30 29 36 34 34 40 44 47 26 18 24 26 28 29 47 61 61 47 34 50 50 31 32 45 46 42 29 21
68 64 56 39 60 84 91 86 60 44 22 36 36 27 27 24 24 21 19 20 25 29 42 47 43 29 26 28 25 27 41 28 44 51 60 51 39 30 25 58 55 53 49 39 48
68 71 45 69 77 92 97 71 64 39 36 41 52 39 47 36 28 26 20 22 28 34 35 28 45 28 24 23 36 32 27 34 50 64 56 57 54 51 53 68 63 63 58 50 42
78 86 83 83 80 96 95 78 57 48 45 42 52 53 46 41 30 31 28 25 20 20 20 21 33 37 27 37 42 59 60 64 40 61 55 74 62 67 70 68 73 83 68 53 50
96 86 82 97 98 94 93 66 60 57 53 48 46 44 50 33 32 30 31 26 22 26 25 28 31 35 32 23 25 45 58 65 90 69 74 62 51 26 60 60 73 85 67 51 38
87 83 56 73 96 96 89 74 63 59 54 53 48 45 44 31 36 34 30 26 24 32 35 27 41 66 34 30 44 56 43 38 75 92 86 83 53 36 40 63 71 80 82 56 46
89 99 74 92 89 90 87 80 74 52 71 61 58 48 50 39 34 42 41 30 26 25 34 36 45 46 53 57 44 38 33 33 72 94 89 76 73 45 40 51 66 67 70 54 53
96 93 85 96 91 91 88 87 82 75 47 61 64 59 57 42 40 42 40 58 48 53 42 43 53 49 46 42 38 38 37 32 34 42 77 56 46 30 35 46 55 63 67 54 51
95 98 85 93 75 80 76 78 77 68 74 83 86 74 73 66 45 51 67 68 66 62 62 64 64 49 54 46 43 48 41 37 32 30 29 30 34 23 39 33 44 42 52 61 79
99 94 97 80 86 88 80 78 88 55 60 68 95 98 89 59 61 61 61 62 69 68 67 67 67 70 62 54 57 64 46 40 34 28 28 33 32 64 64 49 67 74 81 84 85

GFSSW_850_rhum_111.txt.gz
RH
27 23 13 8 6 5 5 4 4 4 4 4 4 4 3 3 2 2 2 3 7 6 11 13 25 24 20 32 30 28 41 47 34 28 23 16 18 14 14 13 12 13 14 15 18
21 16 13 12 10 7 6 5 5 4 4 4 4 4 3 2 2 2 3 15 17 12 18 19 18 25 25 33 30 32 45 37 28 22 22 19 18 16 15 15 13 12 10 11 14
37 17 10 10 9 8 7 6 6 5 5 4 4 4 3 2 3 7 18 16 20 20 20 21 22 24 31 33 29 28 34 27 20 18 18 19 19 16 16 19 14 13 11 12 13
49 37 20 8 7 6 6 6 6 5 5 5 4 3 3 2 6 25 19 16 14 14 13 15 24 26 31 37 31 37 27 23 21 21 21 22 18 18 16 15 15 13 13 13 15
30 20 17 11 8 6 5 4 4 4 4 4 4 4 3 11 2 2 10 20 14 13 11 14 29 27 30 30 28 34 30 26 25 24 23 21 22 19 18 17 16 14 14 15 20
36 26 19 11 8 6 5 4 3 3 4 4 4 5 14 46 3 11 11 11 13 13 13 19 28 28 30 28 32 26 26 26 24 23 22 24 23 21 18 17 15 15 17 20 22
50 43 25 19 17 8 5 4 3 3 3 4 7 14 26 4 3 4 18 19 19 16 15 14 13 16 17 18 17 17 21 22 23 22 25 21 26 25 18 17 20 20 18 18 19
57 44 31 15 12 12 8 5 4 4 3 5 12 27 34 2 6 2 7 10 16 16 14 14 11 13 12 15 16 18 21 28 26 25 22 22 29 21 17 18 22 20 19 20 18
54 36 26 15 15 14 11 6 8 10 19 24 25 35 39 17 22 14 19 18 17 22 24 19 13 12 12 20 24 23 26 29 25 21 22 23 22 20 18 19 25 20 18 19 15
51 38 24 12 21 33 24 16 15 37 45 58 76 69 21 18 36 24 17 15 13 19 17 24 13 16 19 22 34 31 29 29 27 19 20 27 25 18 17 22 25 22 18 16 17
60 45 26 13 23 59 43 22 25 42 39 44 58 69 35 30 27 28 21 14 13 14 23 28 22 24 17 18 21 22 24 26 20 16 15 16 18 16 16 24 28 20 18 19 20
68 59 42 19 26 58 64 65 84 83 93 59 36 35 17 16 28 7 19 13 19 22 24 30 47 28 16 16 18 19 22 21 17 13 18 19 19 17 21 20 21 22 22 21 20
76 68 43 25 36 54 66 69 70 67 91 52 25 38 28 22 33 15 11 16 26 25 28 24 29 30 35 32 26 24 23 22 19 17 19 23 26 25 22 25 24 21 19 20 22
78 60 52 30 43 48 68 63 56 62 75 35 34 29 25 23 30 12 10 11 26 20 26 28 24 28 39 40 34 42 24 21 21 32 38 26 38 25 24 24 23 22 19 20 20
77 62 56 58 68 69 55 54 51 69 23 14 28 22 23 27 28 27 21 13 24 27 30 33 24 39 34 33 33 36 30 34 34 36 36 34 46 28 26 24 24 22 18 19 19
66 61 59 55 52 68 49 54 45 35 31 25 21 23 19 16 26 27 20 19 18 24 26 26 21 23 24 20 26 22 24 30 37 42 52 31 41 29 30 26 25 22 21 40 42
64 58 55 55 45 59 52 62 37 58 24 22 31 26 20 23 23 32 33 30 38 43 44 32 32 26 23 27 24 24 35 46 48 62 48 31 43 30 28 25 31 51 49 52 53
69 57 47 44 47 63 60 71 66 25 41 29 35 24 24 31 27 23 40 40 33 36 40 47 44 32 24 27 30 31 37 52 42 50 40 36 53 40 31 39 56 56 62 59 61
70 57 42 73 50 71 83 90 52 47 35 42 38 43 36 35 38 26 28 29 31 37 44 47 44 28 24 25 29 34 37 28 38 40 60 45 41 30 37 58 59 62 71 68 64
68 48 62 80 73 87 85 77 63 47 48 47 52 45 60 47 45 32 30 27 28 24 30 37 49 27 23 28 34 44 39 38 54 60 49 47 54 55 45 65 63 69 79 79 60
71 56 93 83 84 95 97 86 66 49 49 53 64 63 55 55 44 40 29 28 28 26 28 25 36 39 28 35 32 49 69 70 68 61 65 54 47 56 66 69 76 76 76 82 69
90 94 78 79 95 78 99 73 57 58 59 62 58 61 64 56 56 45 32 40 27 29 33 28 33 37 29 28 27 47 75 82 86 88 82 89 72 45 45 74 73 76 68 71 68
88 71 56 64 96 99 85 80 76 59 67 63 63 54 55 63 79 44 34 33 30 34 33 36 40 41 29 45 44 52 42 37 71 88 76 92 73 38 39 38 71 76 67 58 81
84 96 65 88 80 94 97 89 72 63 67 59 63 57 66 69 67 64 40 36 45 42 44 43 44 35 41 50 44 38 34 30 64 90 64 68 57 48 36 33 59 66 66 74 78
93 92 94 98 93 92 88 77 80 86 65 59 68 71 87 87 77 44 45 60 49 61 54 54 49 45 46 44 41 42 47 42 43 48 63 37 46 38 31 37 40 51 58 75 87
93 94 96 92 79 87 79 81 70 63 82 86 84 76 81 97 58 61 64 66 60 58 59 62 67 56 58 49 48 57 52 50 48 43 40 36 34 22 28 38 42 53 62 74 86
97 84 95 82 86 88 83 80 81 100 74 75 95 99 96 80 58 56 59 61 64 68 71 68 72 70 53 54 58 55 43 49 42 36 38 43 30 42 67 62 59 63 65 89 94

GFSSW_850_rhum_114.txt.gz
RH
13 10 8 7 7 6 6 6 5 4 4 4 4 4 3 3 3 2 3 3 3 5 4 10 20 22 21 28 30 29 45 51 31 31 24 16 21 16 16 15 15 14 14 13 13
28 20 13 9 8 7 7 7 6 5 5 4 4 4 4 3 2 3 7 5 6 19 9 9 20 28 25 31 34 34 49 45 31 27 22 20 20 18 17 18 16 16 14 13 13
29 18 14 11 8 7 6 6 6 5 5 5 4 4 3 3 3 5 26 21 15 16 20 23 25 26 33 36 36 35 41 33 26 23 20 21 20 19 18 22 17 17 16 16 14
41 25 8 7 6 6 5 5 4 4 4 4 4 4 3 2 5 19 20 14 16 19 21 22 27 25 36 41 32 35 32 26 23 21 22 26 24 21 21 20 18 17 18 15 14
28 20 15 9 7 7 6 4 4 4 4 4 4 4 4 10 2 2 7 18 19 14 15 19 28 26 32 30 31 38 33 27 25 24 24 26 28 26 22 20 19 18 17 16 16
22 15 10 8 7 7 6 5 5 4 4 3 5 5 18 29 3 4 11 13 7 10 13 18 25 30 32 34 35 30 29 27 26 26 26 26 27 25 22 20 19 18 17 19 21
21 13 10 7 8 6 4 4 5 6 4 4 8 14 30 3 2 2 4 20 18 22 18 15 15 15 18 20 19 21 23 22 23 24 27 22 31 30 20 20 20 20 20 20 19
26 13 8 8 8 6 4 4 5 6 7 8 25 34 32 2 3 3 5 5 15 19 19 16 16 16 14 14 17 19 21 26 23 25 24 25 33 22 17 17 18 14 12 19 16
34 19 11 10 9 7 4 4 7 10 24 36 40 43 26 14 30 32 21 18 15 13 15 17 20 15 14 20 26 25 29 29 24 24 24 26 26 18 18 12 16 15 14 15 13
42 23 16 19 13 11 7 7 10 26 40 48 70 72 22 27 31 32 30 23 20 20 19 19 14 19 21 27 34 33 31 31 28 19 22 25 26 21 12 14 17 16 14 14 14
37 30 29 25 23 27 20 15 25 36 32 41 32 48 17 12 20 14 17 15 15 16 24 25 27 28 21 18 20 24 27 28 23 18 17 18 18 16 14 15 18 16 16 16 15
60 43 20 18 26 40 59 64 88 95 95 52 11 48 21 27 46 19 16 17 19 22 22 25 46 32 17 16 20 22 24 25 18 16 18 18 19 18 18 19 16 16 18 16 16
57 39 22 16 26 28 59 67 70 77 99 55 35 37 30 33 53 29 18 17 22 25 26 23 23 27 29 24 21 23 23 23 21 18 20 23 30 23 23 21 20 18 17 16 17
63 44 34 19 32 30 50 44 57 65 92 38 33 30 26 28 38 26 20 15 22 21 20 25 20 19 38 39 30 37 29 27 30 30 44 26 44 24 24 24 22 19 17 18 33
53 42 40 40 44 50 40 37 49 72 22 14 28 24 16 26 18 24 21 14 20 28 28 27 34 30 23 28 37 46 33 33 32 39 40 38 42 32 21 23 22 24 21 42 51
59 42 39 37 39 39 32 35 44 15 17 25 26 28 21 17 18 20 20 14 14 19 27 23 23 31 34 31 30 28 30 30 40 44 56 38 37 26 26 24 27 30 48 59 58
55 43 44 43 40 33 32 50 23 24 17 31 39 30 22 36 27 24 24 28 34 41 44 32 30 27 24 28 26 26 34 41 34 62 46 35 43 27 25 26 51 63 63 61 60
58 41 41 36 40 38 44 54 39 22 36 38 40 30 35 39 36 32 29 33 28 31 47 49 44 35 28 29 32 35 36 50 40 43 34 39 49 38 29 46 56 59 61 69 62
54 44 42 66 51 52 64 71 38 57 50 56 42 42 54 43 40 39 37 31 29 29 44 56 46 28 25 29 31 37 40 32 39 38 54 42 38 28 40 57 62 60 62 59 43
56 44 76 69 69 68 84 62 64 53 52 55 56 61 70 62 49 40 41 33 35 29 31 42 56 31 24 35 27 39 47 43 55 57 51 44 48 45 68 72 70 71 72 61 45
57 54 92 94 87 73 95 81 71 53 60 71 74 72 63 66 52 54 45 33 33 32 29 33 38 39 29 32 31 44 60 68 65 70 75 80 47 57 57 74 77 76 69 65 58
66 88 80 74 80 84 94 76 68 66 57 66 67 70 71 65 67 63 59 39 27 35 38 36 42 45 31 38 37 63 75 78 81 92 84 86 80 44 40 45 47 75 69 67 59
78 75 62 70 95 95 87 80 71 68 58 71 69 60 56 70 76 75 64 36 36 36 42 48 50 43 41 45 38 50 38 60 77 86 84 91 67 40 34 30 30 62 61 77 73
77 91 63 81 77 88 97 87 83 61 68 66 67 64 69 75 69 78 74 49 43 46 54 51 52 44 43 43 40 34 36 36 71 92 66 69 48 29 32 34 28 29 54 78 84
83 93 94 98 91 93 89 80 79 80 69 72 75 74 75 95 82 82 65 55 47 55 51 56 54 45 46 44 44 42 45 46 47 51 63 34 34 26 26 23 25 23 51 75 76
92 90 86 92 86 88 80 84 68 62 84 88 94 75 87 96 84 96 64 80 57 54 56 58 63 60 59 50 52 56 56 56 54 47 46 42 42 27 25 23 23 40 58 71 69
91 88 82 82 85 92 83 76 80 79 80 92 98 97 98 83 94 79 70 60 65 64 71 67 65 72 57 54 55 54 44 46 47 47 46 52 39 31 32 34 70 71 78 83 85

GFSSW_850_rhum_117.txt.gz
RH
10 10 9 8 7 7 6 5 5 5 5 4 4 4 4 3 3 3 3 4 4 4 4 6 20 19 23 28 27 25 24 24 15 20 14 18 18 17 16 16 16 15 15 15 14
16 10 8 7 6 5 5 4 4 4 4 4 3 3 3 3 2 3 13 16 15 4 8 11 23 22 29 32 31 28 28 24 20 16 17 18 20 18 17 19 18 19 17 16 17
16 9 7 7 6 6 6 5 5 5 4 4 3 3 3 2 3 5 26 22 17 20 20 15 21 28 31 37 37 32 26 30 25 22 23 21 20 19 18 18 20 20 18 17 18
13 13 11 8 8 6 6 6 6 6 5 5 4 4 4 4 6 5 25 17 22 20 25 29 32 34 32 35 36 32 32 26 24 21 23 21 22 20 23 22 21 20 19 18 18
9 9 9 8 7 5 4 4 5 5 5 5 6 5 8 13 3 2 2 14 18 18 23 23 28 28 29 29 31 37 29 28 26 24 25 25 25 26 26 23 21 20 19 19 18
10 10 8 7 6 4 4 3 4 4 4 5 7 11 18 24 3 3 4 10 15 8 13 18 19 23 28 29 30 30 31 28 27 27 27 26 25 26 23 21 21 21 20 19 20
11 10 8 7 5 4 4 3 4 4 4 5 9 21 34 6 4 3 2 2 14 18 22 18 19 27 23 22 23 23 24 21 23 24 26 26 26 27 21 22 23 22 20 14 14
17 14 8 6 4 4 3 3 3 3 5 12 21 34 26 9 7 13 25 17 6 19 20 19 20 18 17 15 17 19 20 24 21 20 21 23 27 21 20 18 14 12 10 11 10
15 11 9 7 6 4 3 3 4 7 16 26 36 52 31 13 24 34 27 22 27 11 12 18 23 19 16 17 18 24 26 26 24 23 24 26 27 20 20 15 12 11 11 12 12
13 15 10 8 7 6 5 5 9 19 34 35 50 42 22 18 20 15 13 18 20 21 30 25 20 19 20 19 20 23 27 26 23 19 21 22 26 19 16 13 13 14 14 14 15
18 13 11 10 11 16 6 5 21 29 19 31 24 50 25 15 22 17 18 20 18 18 24 22 24 26 21 19 14 21 26 25 23 18 18 18 18 15 12 14 15 16 17 16 16
16 13 10 10 16 15 23 48 80 78 95 30 33 56 29 39 47 19 22 20 21 23 21 29 38 28 18 17 18 19 22 24 22 17 20 17 18 17 16 16 16 17 18 17 20
12 13 9 10 16 16 42 50 63 73 98 41 30 33 29 35 44 24 24 20 20 25 22 23 23 25 24 20 20 20 23 23 19 17 19 22 23 21 20 19 21 19 17 19 27
20 12 13 14 21 22 28 35 54 69 56 21 34 32 15 30 31 16 24 21 20 19 23 24 19 20 28 31 24 29 20 18 18 29 33 26 28 22 21 22 21 19 23 41 54
24 26 23 25 26 21 20 22 49 80 8 14 26 24 17 21 17 15 20 18 24 20 24 30 30 24 22 22 26 26 32 25 29 33 34 33 34 26 22 17 20 23 41 56 59
34 32 24 23 26 22 18 27 48 10 9 20 30 27 24 27 24 23 20 17 19 28 27 27 23 29 22 20 26 33 34 34 38 38 41 31 26 21 19 22 24 40 52 64 65
32 26 27 25 30 22 21 38 14 10 18 41 41 29 30 37 30 25 25 26 27 39 42 30 22 22 26 29 30 30 32 36 43 48 28 29 34 24 24 34 50 52 55 62 57
30 33 34 47 38 29 38 26 23 31 46 43 41 31 42 42 33 26 25 30 25 26 35 47 48 30 26 26 29 35 32 30 25 27 23 35 30 30 49 52 54 56 61 58 53
34 36 60 57 45 42 42 28 29 58 51 56 44 46 51 46 44 36 34 31 28 30 37 45 49 28 27 30 27 37 38 26 27 37 41 34 32 38 46 46 39 41 54 60 62
45 54 90 71 69 52 66 48 59 55 60 59 61 60 63 52 53 45 42 31 32 30 32 31 40 33 31 31 33 38 36 42 44 48 45 36 36 42 42 39 32 32 44 59 63
46 60 83 81 71 56 82 72 67 57 61 64 70 64 59 62 56 53 42 34 31 30 28 34 38 34 30 46 42 42 52 62 51 60 38 39 35 45 42 39 27 23 27 51 68
53 86 72 70 74 96 82 77 68 64 59 55 67 72 72 64 63 61 56 45 37 36 31 36 45 47 35 42 44 59 73 68 56 68 70 60 46 40 39 30 25 23 23 42 66
64 66 64 64 90 86 77 74 68 67 60 63 67 61 58 61 68 61 62 49 46 46 38 44 53 54 58 47 38 38 30 59 66 64 70 63 35 39 26 20 19 22 23 28 74
64 84 69 78 82 83 90 79 73 60 58 57 60 62 66 69 61 76 66 50 53 44 50 51 44 48 60 52 38 38 33 32 55 51 48 42 34 21 20 20 19 18 21 26 70
73 91 93 96 83 83 78 72 72 73 63 74 75 74 83 91 74 70 62 64 53 44 54 50 46 39 36 37 40 40 36 35 36 31 35 25 25 20 18 18 19 22 25 26 58
71 81 88 87 89 81 76 73 68 71 83 82 92 74 82 92 93 94 96 66 58 49 64 56 46 51 52 42 37 44 42 45 42 39 39 35 36 25 23 24 25 27 32 55 70
83 82 72 83 82 82 77 70 71 89 73 80 99 98 93 88 82 82 91 85 74 76 61 60 55 48 44 36 42 51 39 38 36 34 36 36 26 21 27 25 27 36 56 79 87

GFSSW_850_rhum_123.txt.gz
RH
9 8 7 6 5 4 4 4 4 3 3 3 3 2 2 2 2 4 16 12 14 12 6 10 25 20 21 18 16 16 18 16 12 10 8 6 8 8 7 6 10 11 10 13 15
8 6 5 5 4 4 4 4 4 3 3 3 3 2 2 2 2 10 15 14 20 21 23 14 20 18 18 18 17 16 18 16 10 9 9 8 9 8 10 10 9 11 11 12 15
7 6 5 5 4 4 4 3 3 3 2 2 3 2 3 2 21 14 17 19 18 17 21 20 18 16 16 15 16 17 20 13 11 10 10 9 8 10 10 10 9 8 9 11 13
7 6 6 5 4 4 4 4 4 4 4 4 4 4 4 5 14 21 7 3 4 15 37 26 19 16 16 15 13 16 15 14 13 12 12 12 12 11 10 10 10 10 10 10 14
6 6 6 5 5 5 5 4 4 5 5 4 4 4 8 27 14 10 6 6 8 17 29 25 21 17 16 14 13 14 15 14 15 15 15 14 14 13 13 12 12 13 13 14 15
7 6 6 5 4 4 4 3 3 3 3 3 3 5 29 23 12 12 9 6 12 21 18 23 20 18 17 15 14 13 13 14 15 15 14 16 15 14 14 14 15 15 16 16 18
8 6 5 4 4 4 3 3 3 3 3 4 5 9 42 22 23 19 17 17 12 8 14 15 16 18 16 17 16 14 16 14 13 15 15 16 17 16 14 13 14 15 18 18 18
7 6 4 4 4 4 3 3 2 3 4 7 14 61 36 26 21 28 29 26 24 27 20 9 13 15 16 17 16 16 15 19 14 12 11 13 19 12 11 12 14 15 16 18 18
6 5 4 4 4 3 3 2 3 5 9 10 68 65 27 22 20 18 16 14 14 20 30 19 12 17 16 16 18 16 20 16 14 10 10 12 15 11 10 13 14 14 15 13 12
6 6 5 5 4 3 2 3 18 16 30 51 50 41 25 22 24 23 19 17 17 15 24 19 14 16 14 13 18 16 14 13 13 10 10 14 13 12 11 13 14 11 11 10 10
7 6 6 5 4 4 3 30 26 40 25 24 22 24 19 24 25 15 20 20 16 18 17 18 15 15 12 12 12 12 12 13 11 8 10 11 12 12 10 10 12 11 10 9 8
7 6 5 4 7 7 33 35 46 52 31 29 32 32 18 29 22 12 18 18 17 15 13 14 21 14 10 10 11 12 14 14 11 8 9 12 13 10 8 9 10 10 8 8 9
7 6 6 6 10 43 47 50 56 67 40 20 28 18 12 12 16 10 11 15 18 19 16 16 12 11 14 14 11 10 14 15 14 10 10 12 14 12 8 6 7 8 8 8 12
6 6 7 10 41 40 47 52 62 55 34 15 24 18 9 10 14 8 8 13 15 21 20 19 12 13 13 16 15 20 14 14 15 18 21 13 17 10 8 7 8 8 9 13 18
7 6 7 11 43 34 41 38 53 77 22 13 16 16 10 10 11 7 8 10 14 13 18 20 19 18 20 17 14 19 15 17 18 22 20 15 15 12 10 12 11 11 13 18 28
7 7 9 44 61 53 22 17 75 42 15 17 14 14 10 7 10 8 8 6 6 11 12 14 14 18 21 16 16 17 22 19 22 27 33 23 18 14 13 13 11 12 21 28 30
8 11 17 56 54 14 18 60 29 11 9 19 20 15 10 14 13 10 12 8 7 19 19 10 12 14 15 23 19 18 26 48 44 50 52 20 18 15 12 9 10 17 29 30 32
14 13 15 55 34 23 58 28 18 15 20 18 18 15 14 18 18 17 16 12 7 9 18 21 18 19 28 24 26 23 26 44 57 50 35 21 26 18 11 22 25 27 30 33 33
22 64 69 22 14 21 41 15 24 25 26 25 19 17 14 16 18 18 18 16 11 14 24 26 21 14 26 33 33 30 46 27 40 35 41 28 22 28 26 28 27 25 26 33 35
68 60 58 16 13 65 26 28 25 25 27 24 27 23 26 22 24 24 22 13 14 13 15 24 32 17 15 35 30 63 35 61 65 84 61 29 25 32 32 27 23 19 17 18 20
64 46 54 24 51 35 30 29 27 30 28 26 24 26 25 28 26 27 24 18 16 20 21 21 22 18 15 27 46 61 67 38 47 59 46 39 26 19 30 22 17 14 14 14 13
59 68 40 55 44 28 29 28 37 26 34 31 32 34 34 31 31 28 27 22 19 22 29 22 41 31 21 20 34 45 57 98 94 50 42 35 34 32 24 18 19 17 15 14 15
61 41 54 72 62 42 37 35 34 32 29 29 30 26 27 32 38 28 24 20 24 27 30 41 37 51 29 15 40 57 56 58 72 89 87 64 58 35 33 23 16 12 12 12 14
68 71 45 46 38 41 47 38 33 33 30 30 31 32 39 46 35 46 34 28 37 35 37 39 42 40 41 28 68 43 67 48 44 62 58 78 75 71 70 25 11 11 11 12 12
91 53 50 68 48 36 36 34 43 42 36 36 36 45 56 61 46 47 52 50 32 34 34 38 47 41 29 20 17 19 24 34 46 47 50 31 34 52 23 13 12 11 12 13 13
88 52 49 40 44 40 48 39 37 36 46 54 56 52 52 55 66 77 49 49 56 48 42 32 74 42 36 24 21 19 18 22 27 30 30 27 24 15 13 11 10 11 13 16 16
66 68 51 48 42 41 41 41 43 56 45 45 58 65 47 39 41 44 47 46 45 49 52 53 51 45 48 28 29 28 18 16 18 18 25 26 20 13 12 11 13 18 21 23 20